Observation data for Amarillo 7 South Southeast on 11/14/2019      Previous  Date  Next       Current Mesonet Observations  Soil Data  Daily Summary Page  Observations in Plain Language
KAM1 140600Z 02007KT 02/M06 A3016 RMK A01 T00171062  RH  056%=      5-min Rain = 0
KAM1 140601Z 02007KT 02/M06 A3016 RMK A01 T00171061  RH  056%=      5-min Rain = 0
KAM1 140602Z 02007KT 02/M06 A3016 RMK A01 T00171061  RH  056%=      5-min Rain = 0
KAM1 140603Z 02007KT 02/M06 A3016 RMK A01 T00171061  RH  056%=      5-min Rain = 0
KAM1 140604Z 02007KT 02/M06 A3016 RMK A01 T00171061  RH  056%=      5-min Rain = 0
KAM1 140605Z 02007KT 02/M06 A3016 RMK A01 T00171061  RH  056%=      5-min Rain = 0
KAM1 140606Z 02007KT 02/M06 A3016 RMK A01 T00171061  RH  056%=      5-min Rain = 0
KAM1 140607Z 02007KT 02/M06 A3016 RMK A01 T00171061  RH  056%=      5-min Rain = 0
KAM1 140608Z 02007KT 02/M06 A3016 RMK A01 T00171061  RH  056%=      5-min Rain = 0
KAM1 140609Z 02007KT 02/M06 A3017 RMK A01 T00171060  RH  056%=      5-min Rain = 0
KAM1 140610Z 02007KT 02/M06 A3017 RMK A01 T00171061  RH  056%=      5-min Rain = 0
KAM1 140611Z 02008KT 02/M06 A3017 RMK A01 T00161061  RH  057%=      5-min Rain = 0
KAM1 140612Z 02008KT 02/M06 A3017 RMK A01 T00151061  RH  057%=      5-min Rain = 0
KAM1 140613Z 02008KT 02/M06 A3017 RMK A01 T00151060  RH  057%=      5-min Rain = 0
KAM1 140614Z 02008KT 02/M06 A3017 RMK A01 T00151060  RH  057%=      5-min Rain = 0
KAM1 140615Z 02007KT 02/M06 A3017 RMK A01 T00151059  RH  058%=      5-min Rain = 0
KAM1 140616Z 02008KT 02/M06 A3017 RMK A01 T00161059  RH  058%=      5-min Rain = 0
KAM1 140617Z 02007KT 02/M06 A3017 RMK A01 T00161059  RH  058%=      5-min Rain = 0
KAM1 140618Z 02007KT 02/M06 A3017 RMK A01 T00161058  RH  058%=      5-min Rain = 0
KAM1 140619Z 02007KT 02/M06 A3017 RMK A01 T00161059  RH  058%=      5-min Rain = 0
KAM1 140620Z 02007KT 02/M06 A3017 RMK A01 T00171058  RH  057%=      5-min Rain = 0
KAM1 140621Z 02008KT 02/M06 A3017 RMK A01 T00171058  RH  057%=      5-min Rain = 0
KAM1 140622Z 02008KT 02/M06 A3017 RMK A01 T00171058  RH  057%=      5-min Rain = 0
KAM1 140623Z 02008KT 02/M06 A3017 RMK A01 T00171058  RH  058%=      5-min Rain = 0
KAM1 140624Z 02008KT 02/M06 A3017 RMK A01 T00171058  RH  058%=      5-min Rain = 0
KAM1 140625Z 02008KT 02/M06 A3017 RMK A01 T00171058  RH  057%=      5-min Rain = 0
KAM1 140626Z 02008KT 02/M06 A3017 RMK A01 T00181057  RH  058%=      5-min Rain = 0
KAM1 140627Z 02008KT 02/M06 A3017 RMK A01 T00181057  RH  057%=      5-min Rain = 0
KAM1 140628Z 02009KT 02/M06 A3017 RMK A01 T00191056  RH  057%=      5-min Rain = 0
KAM1 140629Z 02008KT 02/M06 A3017 RMK A01 T00211056  RH  057%=      5-min Rain = 0
KAM1 140630Z 02008KT 02/M06 A3017 RMK A01 T00221055  RH  057%=      5-min Rain = 0
KAM1 140631Z 02008KT 02/M06 A3017 RMK A01 T00221056  RH  056%=      5-min Rain = 0
KAM1 140632Z 01008KT 02/M06 A3017 RMK A01 T00221056  RH  056%=      5-min Rain = 0
KAM1 140633Z 01008KT 02/M06 A3017 RMK A01 T00211057  RH  056%=      5-min Rain = 0
KAM1 140634Z 01008KT 02/M06 A3017 RMK A01 T00201058  RH  056%=      5-min Rain = 0
KAM1 140635Z 01008KT 02/M06 A3017 RMK A01 T00191058  RH  057%=      5-min Rain = 0
KAM1 140636Z 01008KT 02/M06 A3017 RMK A01 T00171059  RH  057%=      5-min Rain = 0
KAM1 140637Z 01008KT 02/M06 A3017 RMK A01 T00151059  RH  058%=      5-min Rain = 0
KAM1 140638Z 01008KT 01/M06 A3017 RMK A01 T00141060  RH  058%=      5-min Rain = 0
KAM1 140639Z 01009KT 01/M06 A3017 RMK A01 T00131060  RH  059%=      5-min Rain = 0
KAM1 140640Z 00009KT 01/M06 A3017 RMK A01 T00121059  RH  059%=      5-min Rain = 0
KAM1 140641Z 01009KT 01/M06 A3017 RMK A01 T00111059  RH  060%=      5-min Rain = 0
KAM1 140642Z 01009KT 01/M06 A3017 RMK A01 T00111058  RH  060%=      5-min Rain = 0
KAM1 140643Z 00008KT 01/M06 A3017 RMK A01 T00121056  RH  060%=      5-min Rain = 0
KAM1 140644Z 00008KT 01/M06 A3017 RMK A01 T00131056  RH  060%=      5-min Rain = 0
KAM1 140645Z 00008KT 01/M06 A3018 RMK A01 T00141055  RH  060%=      5-min Rain = 0
KAM1 140646Z 00007KT 02/M05 A3018 RMK A01 T00151054  RH  060%=      5-min Rain = 0
KAM1 140647Z 00008KT 02/M05 A3018 RMK A01 T00161053  RH  060%=      5-min Rain = 0
KAM1 140648Z 00008KT 02/M05 A3018 RMK A01 T00171053  RH  060%=      5-min Rain = 0
KAM1 140649Z 00007KT 02/M05 A3018 RMK A01 T00171053  RH  060%=      5-min Rain = 0
KAM1 140650Z 36006KT 02/M05 A3018 RMK A01 T00181053  RH  059%=      5-min Rain = 0
KAM1 140651Z 36007KT 02/M05 A3018 RMK A01 T00181053  RH  059%=      5-min Rain = 0
KAM1 140652Z 00007KT 02/M05 A3018 RMK A01 T00171054  RH  059%=      5-min Rain = 0
KAM1 140653Z 36007KT 02/M05 A3018 RMK A01 T00161054  RH  060%=      5-min Rain = 0
KAM1 140654Z 36007KT 02/M06 A3018 RMK A01 T00151055  RH  060%=      5-min Rain = 0
KAM1 140655Z 36008KT 01/M06 A3018 RMK A01 T00131056  RH  060%=      5-min Rain = 0
KAM1 140656Z 36008KT 01/M06 A3018 RMK A01 T00111056  RH  061%=      5-min Rain = 0
KAM1 140657Z 36008KT 01/M06 A3018 RMK A01 T00101057  RH  061%=      5-min Rain = 0
KAM1 140658Z 00008KT 01/M06 A3018 RMK A01 T00091057  RH  061%=      5-min Rain = 0
KAM1 140659Z 00009KT 01/M06 A3018 RMK A01 T00091056  RH  062%=      5-min Rain = 0
KAM1 140700Z 36008KT 01/M06 A3018 RMK A01 T00091056  RH  062%=      5-min Rain = 0
KAM1 140701Z 00008KT 01/M06 A3018 RMK A01 T00091056  RH  062%=      5-min Rain = 0
KAM1 140702Z 00007KT 01/M06 A3018 RMK A01 T00091056  RH  062%=      5-min Rain = 0
KAM1 140703Z 00007KT 01/M06 A3018 RMK A01 T00101055  RH  062%=      5-min Rain = 0
KAM1 140704Z 00007KT 01/M06 A3018 RMK A01 T00101055  RH  062%=      5-min Rain = 0
KAM1 140705Z 36008KT 01/M06 A3018 RMK A01 T00101055  RH  062%=      5-min Rain = 0
KAM1 140706Z 36008KT 01/M05 A3018 RMK A01 T00111054  RH  062%=      5-min Rain = 0
KAM1 140707Z 00008KT 01/M05 A3018 RMK A01 T00121054  RH  062%=      5-min Rain = 0
KAM1 140708Z 36008KT 01/M05 A3018 RMK A01 T00121053  RH  062%=      5-min Rain = 0
KAM1 140709Z 00008KT 01/M05 A3018 RMK A01 T00121054  RH  062%=      5-min Rain = 0
KAM1 140710Z 00009KT 01/M05 A3018 RMK A01 T00121054  RH  062%=      5-min Rain = 0
KAM1 140711Z 36008KT 01/M05 A3018 RMK A01 T00111054  RH  062%=      5-min Rain = 0
KAM1 140712Z 36008KT 01/M05 A3018 RMK A01 T00101054  RH  062%=      5-min Rain = 0
KAM1 140713Z 36008KT 01/M05 A3018 RMK A01 T00091054  RH  062%=      5-min Rain = 0
KAM1 140714Z 36008KT 01/M05 A3018 RMK A01 T00091054  RH  063%=      5-min Rain = 0
KAM1 140715Z 00008KT 01/M05 A3018 RMK A01 T00091054  RH  063%=      5-min Rain = 0
KAM1 140716Z 36008KT 01/M05 A3018 RMK A01 T00091053  RH  063%=      5-min Rain = 0
KAM1 140717Z 36008KT 01/M05 A3018 RMK A01 T00091053  RH  063%=      5-min Rain = 0
KAM1 140718Z 36008KT 01/M05 A3018 RMK A01 T00091053  RH  063%=      5-min Rain = 0
KAM1 140719Z 00008KT 01/M05 A3018 RMK A01 T00091052  RH  063%=      5-min Rain = 0
KAM1 140720Z 00008KT 01/M05 A3018 RMK A01 T00091052  RH  064%=      5-min Rain = 0
KAM1 140721Z 01007KT 01/M05 A3018 RMK A01 T00091052  RH  064%=      5-min Rain = 0
KAM1 140722Z 00008KT 01/M05 A3018 RMK A01 T00101051  RH  064%=      5-min Rain = 0
KAM1 140723Z 01007KT 01/M05 A3018 RMK A01 T00101051  RH  064%=      5-min Rain = 0
KAM1 140724Z 00008KT 01/M05 A3018 RMK A01 T00101051  RH  063%=      5-min Rain = 0
KAM1 140725Z 00008KT 01/M05 A3018 RMK A01 T00101051  RH  063%=      5-min Rain = 0
KAM1 140726Z 01007KT 01/M05 A3018 RMK A01 T00101052  RH  063%=      5-min Rain = 0
KAM1 140727Z 00007KT 01/M05 A3018 RMK A01 T00101052  RH  063%=      5-min Rain = 0
KAM1 140728Z 00007KT 01/M05 A3018 RMK A01 T00101052  RH  063%=      5-min Rain = 0
KAM1 140729Z 00008KT 01/M05 A3018 RMK A01 T00091052  RH  063%=      5-min Rain = 0
KAM1 140730Z 00007KT 01/M05 A3018 RMK A01 T00091052  RH  063%=      5-min Rain = 0
KAM1 140731Z 01008KT 01/M05 A3018 RMK A01 T00091052  RH  063%=      5-min Rain = 0
KAM1 140732Z 01008KT 01/M05 A3018 RMK A01 T00091052  RH  063%=      5-min Rain = 0
KAM1 140733Z 00008KT 01/M05 A3018 RMK A01 T00091052  RH  064%=      5-min Rain = 0
KAM1 140734Z 00008KT 01/M05 A3018 RMK A01 T00091052  RH  064%=      5-min Rain = 0
KAM1 140735Z 01008KT 01/M05 A3019 RMK A01 T00101052  RH  064%=      5-min Rain = 0
KAM1 140736Z 01008KT 01/M05 A3019 RMK A01 T00111051  RH  063%=      5-min Rain = 0
KAM1 140737Z 00008KT 01/M05 A3019 RMK A01 T00111051  RH  063%=      5-min Rain = 0
KAM1 140738Z 01008KT 01/M05 A3019 RMK A01 T00121051  RH  063%=      5-min Rain = 0
KAM1 140739Z 00007KT 01/M05 A3019 RMK A01 T00121051  RH  063%=      5-min Rain = 0
KAM1 140740Z 00007KT 01/M05 A3019 RMK A01 T00121051  RH  063%=      5-min Rain = 0
KAM1 140741Z 00007KT 01/M05 A3019 RMK A01 T00121051  RH  063%=      5-min Rain = 0
KAM1 140742Z 01007KT 01/M05 A3019 RMK A01 T00121050  RH  063%=      5-min Rain = 0
KAM1 140743Z 00007KT 01/M05 A3019 RMK A01 T00121051  RH  063%=      5-min Rain = 0
KAM1 140744Z 00007KT 01/M05 A3019 RMK A01 T00121051  RH  063%=      5-min Rain = 0
KAM1 140745Z 01007KT 01/M05 A3019 RMK A01 T00121051  RH  063%=      5-min Rain = 0
KAM1 140746Z 01007KT 01/M05 A3019 RMK A01 T00131050  RH  063%=      5-min Rain = 0
KAM1 140747Z 01007KT 01/M05 A3019 RMK A01 T00121051  RH  063%=      5-min Rain = 0
KAM1 140748Z 01007KT 01/M05 A3019 RMK A01 T00121051  RH  063%=      5-min Rain = 0
KAM1 140749Z 01007KT 01/M05 A3019 RMK A01 T00121050  RH  063%=      5-min Rain = 0
KAM1 140750Z 01007KT 01/M05 A3019 RMK A01 T00121051  RH  063%=      5-min Rain = 0
KAM1 140751Z 01006KT 01/M05 A3019 RMK A01 T00121051  RH  063%=      5-min Rain = 0
KAM1 140752Z 01006KT 01/M05 A3019 RMK A01 T00111051  RH  063%=      5-min Rain = 0
KAM1 140753Z 01006KT 01/M05 A3019 RMK A01 T00101051  RH  063%=      5-min Rain = 0
KAM1 140754Z 01006KT 01/M05 A3019 RMK A01 T00101052  RH  064%=      5-min Rain = 0
KAM1 140755Z 01006KT 01/M05 A3019 RMK A01 T00091052  RH  064%=      5-min Rain = 0
KAM1 140756Z 01006KT 01/M05 A3019 RMK A01 T00091052  RH  064%=      5-min Rain = 0
KAM1 140757Z 01006KT 01/M05 A3019 RMK A01 T00081052  RH  064%=      5-min Rain = 0
KAM1 140758Z 01006KT 01/M05 A3019 RMK A01 T00071053  RH  064%=      5-min Rain = 0
KAM1 140759Z 01006KT 01/M05 A3019 RMK A01 T00061053  RH  065%=      5-min Rain = 0
KAM1 140800Z 00006KT 01/M05 A302 RMK A01 T00051053  RH  065%=      5-min Rain = 0
KAM1 140801Z 01006KT 00/M05 A302 RMK A01 T00041054  RH  065%=      5-min Rain = 0
KAM1 140802Z 01006KT 00/M05 A302 RMK A01 T00031054  RH  065%=      5-min Rain = 0
KAM1 140803Z 01006KT 00/M05 A302 RMK A01 T00031054  RH  066%=      5-min Rain = 0
KAM1 140804Z 00005KT 00/M05 A302 RMK A01 T00021054  RH  066%=      5-min Rain = 0
KAM1 140805Z 00006KT 00/M05 A302 RMK A01 T00021054  RH  066%=      5-min Rain = 0
KAM1 140806Z 00006KT 00/M05 A302 RMK A01 T00011054  RH  066%=      5-min Rain = 0
KAM1 140807Z 00006KT 00/M06 A302 RMK A01 T00011055  RH  066%=      5-min Rain = 0
KAM1 140808Z 00006KT 00/06 A302 RMK A01 T00000-55  RH  066%=      5-min Rain = 0
KAM1 140809Z 00006KT M00/M06 A302 RMK A01 T10011056  RH  066%=      5-min Rain = 0
KAM1 140810Z 00006KT M00/M06 A302 RMK A01 T10011056  RH  067%=      5-min Rain = 0
KAM1 140811Z 00007KT M00/M06 A302 RMK A01 T10021056  RH  067%=      5-min Rain = 0
KAM1 140812Z 00006KT M00/M06 A302 RMK A01 T10021056  RH  067%=      5-min Rain = 0
KAM1 140813Z 00006KT M00/M06 A302 RMK A01 T10031057  RH  067%=      5-min Rain = 0
KAM1 140814Z 01007KT M00/M06 A302 RMK A01 T10031057  RH  067%=      5-min Rain = 0
KAM1 140815Z 00007KT M00/M06 A302 RMK A01 T10041057  RH  067%=      5-min Rain = 0
KAM1 140816Z 00007KT M00/M06 A302 RMK A01 T10041057  RH  067%=      5-min Rain = 0
KAM1 140817Z 00007KT M01/M06 A302 RMK A01 T10051058  RH  067%=      5-min Rain = 0
KAM1 140818Z 00008KT M01/M06 A302 RMK A01 T10051057  RH  068%=      5-min Rain = 0
KAM1 140819Z 00008KT M01/M06 A302 RMK A01 T10061057  RH  068%=      5-min Rain = 0
KAM1 140820Z 00008KT M01/M06 A302 RMK A01 T10051057  RH  068%=      5-min Rain = 0
KAM1 140821Z 00008KT M01/M06 A302 RMK A01 T10051057  RH  068%=      5-min Rain = 0
KAM1 140822Z 00008KT M01/M06 A302 RMK A01 T10051057  RH  068%=      5-min Rain = 0
KAM1 140823Z 00008KT M01/M06 A302 RMK A01 T10051056  RH  068%=      5-min Rain = 0
KAM1 140824Z 00008KT M01/M06 A302 RMK A01 T10051056  RH  068%=      5-min Rain = 0
KAM1 140825Z 00008KT M00/M06 A302 RMK A01 T10041056  RH  068%=      5-min Rain = 0
KAM1 140826Z 00008KT M00/M06 A302 RMK A01 T10041055  RH  068%=      5-min Rain = 0
KAM1 140827Z 00007KT M00/M05 A302 RMK A01 T10031054  RH  068%=      5-min Rain = 0
KAM1 140828Z 00007KT M00/M05 A302 RMK A01 T10011053  RH  068%=      5-min Rain = 0
KAM1 140829Z 00007KT 00/05 A302 RMK A01 T00-00-53  RH  068%=      5-min Rain = 0
KAM1 140830Z 01007KT 00/05 A3021 RMK A01 T00-00-53  RH  067%=      5-min Rain = 0
KAM1 140831Z 00007KT 00/M05 A3021 RMK A01 T00011053  RH  067%=      5-min Rain = 0
KAM1 140832Z 00007KT 00/M05 A3021 RMK A01 T00011053  RH  067%=      5-min Rain = 0
KAM1 140833Z 36007KT 00/M05 A3021 RMK A01 T00021052  RH  067%=      5-min Rain = 0
KAM1 140834Z 00008KT 00/M05 A3021 RMK A01 T00031052  RH  067%=      5-min Rain = 0
KAM1 140835Z 00008KT 00/M05 A3021 RMK A01 T00031052  RH  067%=      5-min Rain = 0
KAM1 140836Z 00008KT 00/M05 A3021 RMK A01 T00031052  RH  067%=      5-min Rain = 0
KAM1 140837Z 00008KT 00/M05 A3021 RMK A01 T00031052  RH  067%=      5-min Rain = 0
KAM1 140838Z 00008KT 00/M05 A3021 RMK A01 T00021052  RH  067%=      5-min Rain = 0
KAM1 140839Z 00008KT 00/M05 A3021 RMK A01 T00021052  RH  067%=      5-min Rain = 0
KAM1 140840Z 00008KT 00/M05 A3021 RMK A01 T00021052  RH  067%=      5-min Rain = 0
KAM1 140841Z 00008KT 00/M05 A3021 RMK A01 T00031051  RH  067%=      5-min Rain = 0
KAM1 140842Z 00008KT 00/M05 A3021 RMK A01 T00031051  RH  067%=      5-min Rain = 0
KAM1 140843Z 00008KT 00/M05 A3021 RMK A01 T00041050  RH  067%=      5-min Rain = 0
KAM1 140844Z 01008KT 00/M05 A3021 RMK A01 T00041051  RH  067%=      5-min Rain = 0
KAM1 140845Z 01008KT 00/M05 A3021 RMK A01 T00041051  RH  067%=      5-min Rain = 0
KAM1 140846Z 00008KT 00/M05 A3021 RMK A01 T00041051  RH  067%=      5-min Rain = 0
KAM1 140847Z 01008KT 00/M05 A3021 RMK A01 T00041051  RH  066%=      5-min Rain = 0
KAM1 140848Z 01008KT 01/M05 A3021 RMK A01 T00051050  RH  066%=      5-min Rain = 0
KAM1 140849Z 01008KT 01/M05 A3021 RMK A01 T00051051  RH  066%=      5-min Rain = 0
KAM1 140850Z 01008KT 01/M05 A3021 RMK A01 T00051050  RH  066%=      5-min Rain = 0
KAM1 140851Z 01008KT 01/M05 A3021 RMK A01 T00051051  RH  066%=      5-min Rain = 0
KAM1 140852Z 01008KT 00/M05 A3021 RMK A01 T00041051  RH  066%=      5-min Rain = 0
KAM1 140853Z 00008KT 00/M05 A3021 RMK A01 T00041051  RH  067%=      5-min Rain = 0
KAM1 140854Z 00009KT 00/M05 A3021 RMK A01 T00031051  RH  067%=      5-min Rain = 0
KAM1 140855Z 00008KT 00/M05 A3021 RMK A01 T00031051  RH  067%=      5-min Rain = 0
KAM1 140856Z 00009KT 00/M05 A3021 RMK A01 T00021052  RH  067%=      5-min Rain = 0
KAM1 140857Z 00009KT 00/M05 A3021 RMK A01 T00021051  RH  067%=      5-min Rain = 0
KAM1 140858Z 00008KT 00/M05 A3021 RMK A01 T00011051  RH  068%=      5-min Rain = 0
KAM1 140859Z 36008KT 00/M05 A3022 RMK A01 T00011051  RH  068%=      5-min Rain = 0
KAM1 140900Z 36008KT 00/M05 A3022 RMK A01 T00011051  RH  068%=      5-min Rain = 0
KAM1 140901Z 35007KT 00/M05 A3022 RMK A01 T00011051  RH  068%=      5-min Rain = 0
KAM1 140902Z 35007KT 00/05 A3022 RMK A01 T00000-52  RH  068%=      5-min Rain = 0
KAM1 140903Z 35007KT 00/05 A3022 RMK A01 T00-00-52  RH  068%=      5-min Rain = 0
KAM1 140904Z 35007KT M00/M05 A3022 RMK A01 T10011052  RH  068%=      5-min Rain = 0
KAM1 140905Z 35007KT M00/M05 A3022 RMK A01 T10011052  RH  069%=      5-min Rain = 0
KAM1 140906Z 35008KT M00/M05 A3022 RMK A01 T10021052  RH  069%=      5-min Rain = 0
KAM1 140907Z 35008KT M00/M05 A3022 RMK A01 T10021052  RH  069%=      5-min Rain = 0
KAM1 140908Z 35008KT M00/M05 A3022 RMK A01 T10021052  RH  069%=      5-min Rain = 0
KAM1 140909Z 36008KT M00/M05 A3022 RMK A01 T10021052  RH  069%=      5-min Rain = 0
KAM1 140910Z 36008KT M00/M05 A3022 RMK A01 T10021051  RH  069%=      5-min Rain = 0
KAM1 140911Z 36008KT M00/M05 A3022 RMK A01 T10021051  RH  069%=      5-min Rain = 0
KAM1 140912Z 00008KT M00/M05 A3022 RMK A01 T10011051  RH  069%=      5-min Rain = 0
KAM1 140913Z 36008KT M00/M05 A3022 RMK A01 T10011051  RH  069%=      5-min Rain = 0
KAM1 140914Z 36008KT M00/M05 A3022 RMK A01 T10011050  RH  069%=      5-min Rain = 0
KAM1 140915Z 35008KT M00/M05 A3022 RMK A01 T10011050  RH  069%=      5-min Rain = 0
KAM1 140916Z 35008KT M00/M05 A3022 RMK A01 T10011051  RH  069%=      5-min Rain = 0
KAM1 140917Z 35008KT M00/M05 A3022 RMK A01 T10021050  RH  070%=      5-min Rain = 0
KAM1 140918Z 35008KT M00/M05 A3022 RMK A01 T10011050  RH  070%=      5-min Rain = 0
KAM1 140919Z 35008KT M00/M05 A3022 RMK A01 T10011050  RH  070%=      5-min Rain = 0
KAM1 140920Z 35008KT M00/M05 A3022 RMK A01 T10011050  RH  070%=      5-min Rain = 0
KAM1 140921Z 35008KT M00/M05 A3022 RMK A01 T10011050  RH  070%=      5-min Rain = 0
KAM1 140922Z 36008KT M00/M05 A3022 RMK A01 T10011049  RH  070%=      5-min Rain = 0
KAM1 140923Z 36008KT M00/M05 A3022 RMK A01 T10011049  RH  070%=      5-min Rain = 0
KAM1 140924Z 36008KT M00/M05 A3022 RMK A01 T10011049  RH  070%=      5-min Rain = 0
KAM1 140925Z 36008KT M00/M05 A3022 RMK A01 T10011049  RH  070%=      5-min Rain = 0
KAM1 140926Z 00008KT M00/M05 A3022 RMK A01 T10011049  RH  070%=      5-min Rain = 0
KAM1 140927Z 36008KT M00/M05 A3022 RMK A01 T10011048  RH  070%=      5-min Rain = 0
KAM1 140928Z 36008KT 00/05 A3022 RMK A01 T00-00-48  RH  070%=      5-min Rain = 0
KAM1 140929Z 36008KT 00/05 A3022 RMK A01 T00000-48  RH  070%=      5-min Rain = 0
KAM1 140930Z 36008KT 00/M05 A3022 RMK A01 T00011048  RH  070%=      5-min Rain = 0
KAM1 140931Z 36008KT 00/M05 A3022 RMK A01 T00021048  RH  070%=      5-min Rain = 0
KAM1 140932Z 36007KT 00/M05 A3022 RMK A01 T00021048  RH  069%=      5-min Rain = 0
KAM1 140933Z 00008KT 00/M05 A3022 RMK A01 T00021047  RH  069%=      5-min Rain = 0
KAM1 140934Z 36008KT 00/M05 A3022 RMK A01 T00021048  RH  069%=      5-min Rain = 0
KAM1 140935Z 00008KT 00/M05 A3022 RMK A01 T00031047  RH  069%=      5-min Rain = 0
KAM1 140936Z 00007KT 00/M05 A3022 RMK A01 T00031047  RH  069%=      5-min Rain = 0
KAM1 140937Z 00008KT 00/M05 A3022 RMK A01 T00041047  RH  069%=      5-min Rain = 0
KAM1 140938Z 00008KT 00/M05 A3022 RMK A01 T00041047  RH  068%=      5-min Rain = 0
KAM1 140939Z 36008KT 00/M05 A3022 RMK A01 T00041048  RH  068%=      5-min Rain = 0
KAM1 140940Z 00007KT 00/M05 A3022 RMK A01 T00041048  RH  068%=      5-min Rain = 0
KAM1 140941Z 36007KT 00/M05 A3022 RMK A01 T00031048  RH  068%=      5-min Rain = 0
KAM1 140942Z 00007KT 00/M05 A3022 RMK A01 T00031048  RH  068%=      5-min Rain = 0
KAM1 140943Z 01006KT 00/M05 A3022 RMK A01 T00031048  RH  069%=      5-min Rain = 0
KAM1 140944Z 00007KT 00/M05 A3022 RMK A01 T00031048  RH  069%=      5-min Rain = 0
KAM1 140945Z 00007KT 00/M05 A3022 RMK A01 T00021049  RH  069%=      5-min Rain = 0
KAM1 140946Z 00007KT 00/M05 A3022 RMK A01 T00021049  RH  069%=      5-min Rain = 0
KAM1 140947Z 00008KT 00/M05 A3022 RMK A01 T00021049  RH  069%=      5-min Rain = 0
KAM1 140948Z 00008KT 00/M05 A3022 RMK A01 T00011049  RH  069%=      5-min Rain = 0
KAM1 140949Z 00007KT 00/05 A3022 RMK A01 T00-00-49  RH  069%=      5-min Rain = 0
KAM1 140950Z 00007KT 00/05 A3022 RMK A01 T00-00-49  RH  070%=      5-min Rain = 0
KAM1 140951Z 00006KT M00/M05 A3022 RMK A01 T10011049  RH  070%=      5-min Rain = 0
KAM1 140952Z 36007KT M00/M05 A3023 RMK A01 T10011049  RH  070%=      5-min Rain = 0
KAM1 140953Z 36007KT M00/M05 A3023 RMK A01 T10021050  RH  070%=      5-min Rain = 0
KAM1 140954Z 00006KT M00/M05 A3023 RMK A01 T10031050  RH  070%=      5-min Rain = 0
KAM1 140955Z 00007KT M00/M05 A3023 RMK A01 T10031050  RH  071%=      5-min Rain = 0
KAM1 140956Z 36006KT M00/M05 A3023 RMK A01 T10041050  RH  071%=      5-min Rain = 0
KAM1 140957Z 36006KT M00/M05 A3023 RMK A01 T10041050  RH  071%=      5-min Rain = 0
KAM1 140958Z 36006KT M01/M05 A3023 RMK A01 T10051050  RH  071%=      5-min Rain = 0
KAM1 140959Z 01006KT M01/M05 A3023 RMK A01 T10051050  RH  071%=      5-min Rain = 0
KAM1 141000Z 00007KT M01/M05 A3023 RMK A01 T10051050  RH  072%=      5-min Rain = 0
KAM1 141001Z 00007KT M01/M05 A3023 RMK A01 T10061051  RH  072%=      5-min Rain = 0
KAM1 141002Z 00007KT M01/M05 A3023 RMK A01 T10061050  RH  072%=      5-min Rain = 0
KAM1 141003Z 00007KT M01/M05 A3023 RMK A01 T10061049  RH  072%=      5-min Rain = 0
KAM1 141004Z 00007KT M01/M05 A3023 RMK A01 T10061050  RH  072%=      5-min Rain = 0
KAM1 141005Z 00007KT M01/M05 A3023 RMK A01 T10061049  RH  072%=      5-min Rain = 0
KAM1 141006Z 00007KT M01/M05 A3023 RMK A01 T10061049  RH  072%=      5-min Rain = 0
KAM1 141007Z 36007KT M01/M05 A3023 RMK A01 T10071050  RH  073%=      5-min Rain = 0
KAM1 141008Z 36007KT M01/M05 A3023 RMK A01 T10071049  RH  073%=      5-min Rain = 0
KAM1 141009Z 00006KT M01/M05 A3023 RMK A01 T10071049  RH  073%=      5-min Rain = 0
KAM1 141010Z 36006KT M01/M05 A3023 RMK A01 T10071049  RH  073%=      5-min Rain = 0
KAM1 141011Z 36006KT M01/M05 A3023 RMK A01 T10081050  RH  073%=      5-min Rain = 0
KAM1 141012Z 36005KT M01/M05 A3024 RMK A01 T10081050  RH  073%=      5-min Rain = 0
KAM1 141013Z 36005KT M01/M05 A3024 RMK A01 T10091050  RH  073%=      5-min Rain = 0
KAM1 141014Z 36006KT M01/M05 A3024 RMK A01 T10091050  RH  074%=      5-min Rain = 0
KAM1 141015Z 36005KT M01/M05 A3024 RMK A01 T10091050  RH  074%=      5-min Rain = 0
KAM1 141016Z 36005KT M01/M05 A3023 RMK A01 T10101050  RH  074%=      5-min Rain = 0
KAM1 141017Z 35005KT M01/M05 A3023 RMK A01 T10101051  RH  074%=      5-min Rain = 0
KAM1 141018Z 36005KT M01/M05 A3024 RMK A01 T10111051  RH  074%=      5-min Rain = 0
KAM1 141019Z 36005KT M01/M05 A3024 RMK A01 T10111050  RH  074%=      5-min Rain = 0
KAM1 141020Z 35005KT M01/M05 A3024 RMK A01 T10111051  RH  074%=      5-min Rain = 0
KAM1 141021Z 36006KT M01/M05 A3024 RMK A01 T10111051  RH  075%=      5-min Rain = 0
KAM1 141022Z 35005KT M01/M05 A3024 RMK A01 T10111050  RH  075%=      5-min Rain = 0
KAM1 141023Z 35005KT M01/M05 A3024 RMK A01 T10111050  RH  075%=      5-min Rain = 0
KAM1 141024Z 35005KT M01/M05 A3024 RMK A01 T10111050  RH  075%=      5-min Rain = 0
KAM1 141025Z 35005KT M01/M05 A3024 RMK A01 T10111050  RH  075%=      5-min Rain = 0
KAM1 141026Z 35005KT M01/M05 A3024 RMK A01 T10121051  RH  075%=      5-min Rain = 0
KAM1 141027Z 35005KT M01/M05 A3024 RMK A01 T10121051  RH  075%=      5-min Rain = 0
KAM1 141028Z 35004KT M01/M05 A3024 RMK A01 T10121050  RH  075%=      5-min Rain = 0
KAM1 141029Z 36005KT M01/M05 A3024 RMK A01 T10131051  RH  075%=      5-min Rain = 0
KAM1 141030Z 00006KT M01/M05 A3024 RMK A01 T10141051  RH  075%=      5-min Rain = 0
KAM1 141031Z 00005KT M01/M05 A3024 RMK A01 T10131051  RH  076%=      5-min Rain = 0
KAM1 141032Z 00005KT M01/M05 A3024 RMK A01 T10131051  RH  075%=      5-min Rain = 0
KAM1 141033Z 00005KT M01/M05 A3024 RMK A01 T10141052  RH  075%=      5-min Rain = 0
KAM1 141034Z 00006KT M02/M05 A3024 RMK A01 T10151052  RH  076%=      5-min Rain = 0
KAM1 141035Z 00006KT M02/M05 A3024 RMK A01 T10151052  RH  076%=      5-min Rain = 0
KAM1 141036Z 00006KT M02/M05 A3024 RMK A01 T10151051  RH  076%=      5-min Rain = 0
KAM1 141037Z 00006KT M02/M05 A3024 RMK A01 T10151051  RH  076%=      5-min Rain = 0
KAM1 141038Z 36006KT M01/M05 A3024 RMK A01 T10141051  RH  076%=      5-min Rain = 0
KAM1 141039Z 35006KT M01/M05 A3024 RMK A01 T10141051  RH  076%=      5-min Rain = 0
KAM1 141040Z 35006KT M02/M05 A3024 RMK A01 T10151051  RH  076%=      5-min Rain = 0
KAM1 141041Z 35006KT M02/M05 A3024 RMK A01 T10151051  RH  076%=      5-min Rain = 0
KAM1 141042Z 35006KT M02/M05 A3024 RMK A01 T10161052  RH  076%=      5-min Rain = 0
KAM1 141043Z 35006KT M02/M05 A3024 RMK A01 T10171052  RH  077%=      5-min Rain = 0
KAM1 141044Z 35006KT M02/M05 A3024 RMK A01 T10171051  RH  077%=      5-min Rain = 0
KAM1 141045Z 35006KT M02/M05 A3024 RMK A01 T10171051  RH  078%=      5-min Rain = 0
KAM1 141046Z 35006KT M02/M05 A3024 RMK A01 T10161050  RH  078%=      5-min Rain = 0
KAM1 141047Z 35006KT M02/M05 A3024 RMK A01 T10161050  RH  078%=      5-min Rain = 0
KAM1 141048Z 35005KT M02/M05 A3024 RMK A01 T10171050  RH  078%=      5-min Rain = 0
KAM1 141049Z 35005KT M02/M05 A3024 RMK A01 T10171050  RH  078%=      5-min Rain = 0
KAM1 141050Z 36005KT M02/M05 A3024 RMK A01 T10171050  RH  078%=      5-min Rain = 0
KAM1 141051Z 36005KT M02/M05 A3024 RMK A01 T10171050  RH  078%=      5-min Rain = 0
KAM1 141052Z 35005KT M02/M05 A3024 RMK A01 T10171050  RH  079%=      5-min Rain = 0
KAM1 141053Z 36005KT M02/M05 A3024 RMK A01 T10181050  RH  079%=      5-min Rain = 0
KAM1 141054Z 35006KT M02/M05 A3024 RMK A01 T10181050  RH  079%=      5-min Rain = 0
KAM1 141055Z 35006KT M02/M05 A3024 RMK A01 T10191051  RH  079%=      5-min Rain = 0
KAM1 141056Z 35006KT M02/M05 A3024 RMK A01 T10191051  RH  079%=      5-min Rain = 0
KAM1 141057Z 35006KT M02/M05 A3024 RMK A01 T10201052  RH  079%=      5-min Rain = 0
KAM1 141058Z 35005KT M02/M05 A3024 RMK A01 T10211052  RH  079%=      5-min Rain = 0
KAM1 141059Z 35005KT M02/M05 A3024 RMK A01 T10221053  RH  080%=      5-min Rain = 0
KAM1 141100Z 34005KT M02/M05 A3024 RMK A01 T10231053  RH  080%=      5-min Rain = 0
KAM1 141101Z 34004KT M02/M05 A3025 RMK A01 T10231053  RH  080%=      5-min Rain = 0
KAM1 141102Z 34003KT M02/M05 A3025 RMK A01 T10241054  RH  080%=      5-min Rain = 0
KAM1 141103Z 34004KT M03/M05 A3025 RMK A01 T10251054  RH  080%=      5-min Rain = 0
KAM1 141104Z 33004KT M03/M05 A3025 RMK A01 T10251053  RH  081%=      5-min Rain = 0
KAM1 141105Z 33004KT M03/M05 A3025 RMK A01 T10251052  RH  082%=      5-min Rain = 0
KAM1 141106Z 33004KT M02/M05 A3025 RMK A01 T10241050  RH  082%=      5-min Rain = 0
KAM1 141107Z 33004KT M02/M05 A3025 RMK A01 T10241051  RH  082%=      5-min Rain = 0
KAM1 141108Z 33004KT M02/M05 A3025 RMK A01 T10241051  RH  082%=      5-min Rain = 0
KAM1 141109Z 32004KT M03/M05 A3025 RMK A01 T10251053  RH  081%=      5-min Rain = 0
KAM1 141110Z 33004KT M03/M06 A3025 RMK A01 T10271056  RH  080%=      5-min Rain = 0
KAM1 141111Z 33004KT M03/M06 A3025 RMK A01 T10291058  RH  081%=      5-min Rain = 0
KAM1 141112Z 33005KT M03/M06 A3025 RMK A01 T10311057  RH  082%=      5-min Rain = 0
KAM1 141113Z 33005KT M03/M06 A3025 RMK A01 T10311055  RH  083%=      5-min Rain = 0
KAM1 141114Z 34005KT M03/M05 A3025 RMK A01 T10301054  RH  084%=      5-min Rain = 0
KAM1 141115Z 34005KT M03/M05 A3025 RMK A01 T10301054  RH  084%=      5-min Rain = 0
KAM1 141116Z 34006KT M03/M05 A3025 RMK A01 T10301054  RH  084%=      5-min Rain = 0
KAM1 141117Z 34006KT M03/M05 A3025 RMK A01 T10301054  RH  084%=      5-min Rain = 0
KAM1 141118Z 34007KT M03/M06 A3025 RMK A01 T10301055  RH  083%=      5-min Rain = 0
KAM1 141119Z 34007KT M03/M06 A3025 RMK A01 T10301055  RH  083%=      5-min Rain = 0
KAM1 141120Z 34008KT M03/M06 A3025 RMK A01 T10311056  RH  083%=      5-min Rain = 0
KAM1 141121Z 34008KT M03/M06 A3025 RMK A01 T10321055  RH  084%=      5-min Rain = 0
KAM1 141122Z 35008KT M03/M05 A3026 RMK A01 T10311054  RH  084%=      5-min Rain = 0
KAM1 141123Z 35008KT M03/M05 A3026 RMK A01 T10311053  RH  085%=      5-min Rain = 0
KAM1 141124Z 35007KT M03/M05 A3026 RMK A01 T10301051  RH  085%=      5-min Rain = 0
KAM1 141125Z 35007KT M03/M05 A3026 RMK A01 T10281049  RH  086%=      5-min Rain = 0
KAM1 141126Z 35007KT M03/M05 A3026 RMK A01 T10271048  RH  086%=      5-min Rain = 0
KAM1 141127Z 35006KT M03/M05 A3026 RMK A01 T10261047  RH  085%=      5-min Rain = 0
KAM1 141128Z 34006KT M03/M05 A3026 RMK A01 T10251046  RH  085%=      5-min Rain = 0
KAM1 141129Z 34006KT M02/M05 A3026 RMK A01 T10241046  RH  085%=      5-min Rain = 0
KAM1 141130Z 34006KT M02/M05 A3026 RMK A01 T10231047  RH  084%=      5-min Rain = 0
KAM1 141131Z 34005KT M02/M05 A3026 RMK A01 T10231047  RH  084%=      5-min Rain = 0
KAM1 141132Z 34005KT M02/M05 A3026 RMK A01 T10231047  RH  083%=      5-min Rain = 0
KAM1 141133Z 35004KT M02/M05 A3026 RMK A01 T10231048  RH  083%=      5-min Rain = 0
KAM1 141134Z 35004KT M02/M05 A3026 RMK A01 T10231048  RH  083%=      5-min Rain = 0
KAM1 141135Z 35004KT M02/M05 A3026 RMK A01 T10231048  RH  083%=      5-min Rain = 0
KAM1 141136Z 35004KT M02/M05 A3026 RMK A01 T10221048  RH  082%=      5-min Rain = 0
KAM1 141137Z 35005KT M02/M05 A3026 RMK A01 T10231049  RH  082%=      5-min Rain = 0
KAM1 141138Z 35004KT M02/M05 A3026 RMK A01 T10231049  RH  082%=      5-min Rain = 0
KAM1 141139Z 35004KT M02/M05 A3026 RMK A01 T10231049  RH  082%=      5-min Rain = 0
KAM1 141140Z 35005KT M02/M05 A3026 RMK A01 T10231049  RH  082%=      5-min Rain = 0
KAM1 141141Z 35005KT M02/M05 A3026 RMK A01 T10231050  RH  082%=      5-min Rain = 0
KAM1 141142Z 35004KT M02/M05 A3026 RMK A01 T10241051  RH  082%=      5-min Rain = 0
KAM1 141143Z 34004KT M03/M05 A3026 RMK A01 T10251051  RH  082%=      5-min Rain = 0
KAM1 141144Z 34004KT M03/M05 A3026 RMK A01 T10251052  RH  082%=      5-min Rain = 0
KAM1 141145Z 34004KT M03/M05 A3027 RMK A01 T10261053  RH  082%=      5-min Rain = 0
KAM1 141146Z 34004KT M03/M05 A3027 RMK A01 T10271054  RH  082%=      5-min Rain = 0
KAM1 141147Z 33003KT M03/M05 A3027 RMK A01 T10281054  RH  082%=      5-min Rain = 0
KAM1 141148Z 32003KT M03/M05 A3027 RMK A01 T10281054  RH  083%=      5-min Rain = 0
KAM1 141149Z 31003KT M03/M05 A3027 RMK A01 T10281053  RH  083%=      5-min Rain = 0
KAM1 141150Z 30003KT M03/M06 A3027 RMK A01 T10291055  RH  083%=      5-min Rain = 0
KAM1 141151Z 29003KT M03/M06 A3027 RMK A01 T10321058  RH  082%=      5-min Rain = 0
KAM1 141152Z 29003KT M03/M06 A3027 RMK A01 T10341060  RH  082%=      5-min Rain = 0
KAM1 141153Z 29003KT M04/M06 A3027 RMK A01 T10361061  RH  083%=      5-min Rain = 0
KAM1 141154Z 29003KT M04/M06 A3027 RMK A01 T10381062  RH  084%=      5-min Rain = 0
KAM1 141155Z 29004KT M04/M06 A3027 RMK A01 T10391060  RH  085%=      5-min Rain = 0
KAM1 141156Z 29003KT M04/M06 A3027 RMK A01 T10391058  RH  086%=      5-min Rain = 0
KAM1 141157Z 30004KT M04/M06 A3027 RMK A01 T10381057  RH  087%=      5-min Rain = 0
KAM1 141158Z 30004KT M04/M06 A3027 RMK A01 T10381057  RH  087%=      5-min Rain = 0
KAM1 141159Z 30004KT M04/M06 A3027 RMK A01 T10391058  RH  087%=      5-min Rain = 0
KAM1 141200Z 31004KT M04/M06 A3027 RMK A01 T10391058  RH  087%=      5-min Rain = 0
KAM1 141201Z 30004KT M04/M06 A3027 RMK A01 T10391056  RH  088%=      5-min Rain = 0
KAM1 141202Z 31004KT M04/M05 A3027 RMK A01 T10381054  RH  089%=      5-min Rain = 0
KAM1 141203Z 31004KT M04/M06 A3027 RMK A01 T10381055  RH  088%=      5-min Rain = 0
KAM1 141204Z 31003KT M04/M05 A3027 RMK A01 T10381054  RH  088%=      5-min Rain = 0
KAM1 141205Z 32003KT M04/M05 A3028 RMK A01 T10371052  RH  089%=      5-min Rain = 0
KAM1 141206Z 31004KT M04/M05 A3028 RMK A01 T10361051  RH  089%=      5-min Rain = 0
KAM1 141207Z 31004KT M03/M05 A3028 RMK A01 T10341049  RH  089%=      5-min Rain = 0
KAM1 141208Z 31003KT M03/M05 A3028 RMK A01 T10321048  RH  089%=      5-min Rain = 0
KAM1 141209Z 31003KT M03/M05 A3028 RMK A01 T10321049  RH  088%=      5-min Rain = 0
KAM1 141210Z 31004KT M03/M05 A3028 RMK A01 T10321051  RH  087%=      5-min Rain = 0
KAM1 141211Z 31004KT M03/M05 A3028 RMK A01 T10321053  RH  086%=      5-min Rain = 0
KAM1 141212Z 31003KT M03/M05 A3028 RMK A01 T10331054  RH  086%=      5-min Rain = 0
KAM1 141213Z 31003KT M04/M06 A3028 RMK A01 T10351055  RH  086%=      5-min Rain = 0
KAM1 141214Z 31004KT M04/M06 A3028 RMK A01 T10361056  RH  086%=      5-min Rain = 0
KAM1 141215Z 32004KT M04/M06 A3028 RMK A01 T10371056  RH  087%=      5-min Rain = 0
KAM1 141216Z 31004KT M04/M06 A3029 RMK A01 T10371056  RH  087%=      5-min Rain = 0
KAM1 141217Z 31004KT M04/M06 A3029 RMK A01 T10381056  RH  087%=      5-min Rain = 0
KAM1 141218Z 31005KT M04/M06 A3029 RMK A01 T10381056  RH  088%=      5-min Rain = 0
KAM1 141219Z 31005KT M04/M06 A3029 RMK A01 T10381056  RH  088%=      5-min Rain = 0
KAM1 141220Z 31005KT M04/M06 A3029 RMK A01 T10381056  RH  088%=      5-min Rain = 0
KAM1 141221Z 31005KT M04/M06 A3029 RMK A01 T10381055  RH  088%=      5-min Rain = 0
KAM1 141222Z 31005KT M04/M06 A3029 RMK A01 T10381055  RH  088%=      5-min Rain = 0
KAM1 141223Z 31005KT M04/M05 A3029 RMK A01 T10381054  RH  089%=      5-min Rain = 0
KAM1 141224Z 31005KT M04/M05 A3029 RMK A01 T10371053  RH  089%=      5-min Rain = 0
KAM1 141225Z 31005KT M04/M05 A3029 RMK A01 T10371054  RH  088%=      5-min Rain = 0
KAM1 141226Z 31006KT M04/M05 A3029 RMK A01 T10361054  RH  088%=      5-min Rain = 0
KAM1 141227Z 31005KT M04/M05 A3029 RMK A01 T10361053  RH  088%=      5-min Rain = 0
KAM1 141228Z 31006KT M04/M05 A3029 RMK A01 T10361054  RH  087%=      5-min Rain = 0
KAM1 141229Z 31006KT M04/M06 A3029 RMK A01 T10371056  RH  086%=      5-min Rain = 0
KAM1 141230Z 31006KT M04/M06 A3029 RMK A01 T10381057  RH  086%=      5-min Rain = 0
KAM1 141231Z 31005KT M04/M06 A3029 RMK A01 T10391057  RH  087%=      5-min Rain = 0
KAM1 141232Z 31005KT M04/M06 A3029 RMK A01 T10391057  RH  087%=      5-min Rain = 0
KAM1 141233Z 31005KT M04/M06 A303 RMK A01 T10401059  RH  087%=      5-min Rain = 0
KAM1 141234Z 31005KT M04/M06 A303 RMK A01 T10401058  RH  088%=      5-min Rain = 0
KAM1 141235Z 32005KT M04/M06 A303 RMK A01 T10401055  RH  089%=      5-min Rain = 0
KAM1 141236Z 31005KT M04/M05 A303 RMK A01 T10391054  RH  090%=      5-min Rain = 0
KAM1 141237Z 32005KT M04/M05 A303 RMK A01 T10391053  RH  090%=      5-min Rain = 0
KAM1 141238Z 32005KT M04/M05 A303 RMK A01 T10381053  RH  090%=      5-min Rain = 0
KAM1 141239Z 32006KT M04/M06 A303 RMK A01 T10391055  RH  088%=      5-min Rain = 0
KAM1 141240Z 32006KT M04/M06 A303 RMK A01 T10401057  RH  088%=      5-min Rain = 0
KAM1 141241Z 32006KT M04/M06 A303 RMK A01 T10401056  RH  089%=      5-min Rain = 0
KAM1 141242Z 32006KT M04/M06 A303 RMK A01 T10401056  RH  089%=      5-min Rain = 0
KAM1 141243Z 33006KT M04/M06 A303 RMK A01 T10401056  RH  089%=      5-min Rain = 0
KAM1 141244Z 33006KT M04/M06 A303 RMK A01 T10411055  RH  090%=      5-min Rain = 0
KAM1 141245Z 33005KT M04/M06 A303 RMK A01 T10411055  RH  090%=      5-min Rain = 0
KAM1 141246Z 33005KT M04/M06 A303 RMK A01 T10411055  RH  090%=      5-min Rain = 0
KAM1 141247Z 33005KT M04/M06 A303 RMK A01 T10411055  RH  090%=      5-min Rain = 0
KAM1 141248Z 32005KT M04/M05 A303 RMK A01 T10411054  RH  091%=      5-min Rain = 0
KAM1 141249Z 32005KT M04/M05 A303 RMK A01 T10411054  RH  091%=      5-min Rain = 0
KAM1 141250Z 32005KT M04/M05 A303 RMK A01 T10411052  RH  092%=      5-min Rain = 0
KAM1 141251Z 32005KT M04/M05 A303 RMK A01 T10401052  RH  092%=      5-min Rain = 0
KAM1 141252Z 31005KT M04/M05 A303 RMK A01 T10401052  RH  092%=      5-min Rain = 0
KAM1 141253Z 31005KT M04/M05 A303 RMK A01 T10401051  RH  092%=      5-min Rain = 0
KAM1 141254Z 31005KT M04/M05 A303 RMK A01 T10391050  RH  092%=      5-min Rain = 0
KAM1 141255Z 31004KT M04/M05 A303 RMK A01 T10391049  RH  093%=      5-min Rain = 0
KAM1 141256Z 31004KT M04/M05 A303 RMK A01 T10391051  RH  092%=      5-min Rain = 0
KAM1 141257Z 31004KT M04/M05 A3031 RMK A01 T10391052  RH  091%=      5-min Rain = 0
KAM1 141258Z 31004KT M04/M05 A3031 RMK A01 T10401053  RH  090%=      5-min Rain = 0
KAM1 141259Z 31005KT M04/M05 A3031 RMK A01 T10401053  RH  091%=      5-min Rain = 0
KAM1 141300Z 32005KT M04/M05 A3031 RMK A01 T10401053  RH  091%=      5-min Rain = 0
KAM1 141301Z 32005KT M04/M05 A3031 RMK A01 T10401054  RH  091%=      5-min Rain = 0
KAM1 141302Z 31005KT M04/M05 A3031 RMK A01 T10411053  RH  091%=      5-min Rain = 0
KAM1 141303Z 31004KT M04/M05 A3031 RMK A01 T10411054  RH  091%=      5-min Rain = 0
KAM1 141304Z 31004KT M04/M05 A3031 RMK A01 T10411054  RH  091%=      5-min Rain = 0
KAM1 141305Z 31004KT M04/M05 A3031 RMK A01 T10411053  RH  091%=      5-min Rain = 0
KAM1 141306Z 31004KT M04/M05 A3031 RMK A01 T10411052  RH  092%=      5-min Rain = 0
KAM1 141307Z 31004KT M04/M05 A3031 RMK A01 T10411052  RH  092%=      5-min Rain = 0
KAM1 141308Z 31003KT M04/M05 A3031 RMK A01 T10411052  RH  092%=      5-min Rain = 0
KAM1 141309Z 32003KT M04/M05 A3031 RMK A01 T10401051  RH  092%=      5-min Rain = 0
KAM1 141310Z 32004KT M04/M05 A3031 RMK A01 T10391050  RH  092%=      5-min Rain = 0
KAM1 141311Z 32004KT M04/M05 A3031 RMK A01 T10391049  RH  092%=      5-min Rain = 0
KAM1 141312Z 33003KT M04/M05 A3031 RMK A01 T10381049  RH  092%=      5-min Rain = 0
KAM1 141313Z 33004KT M04/M05 A3031 RMK A01 T10381049  RH  092%=      5-min Rain = 0
KAM1 141314Z 33004KT M04/M05 A3031 RMK A01 T10371049  RH  092%=      5-min Rain = 0
KAM1 141315Z 33004KT M04/M05 A3032 RMK A01 T10371048  RH  092%=      5-min Rain = 0
KAM1 141316Z 34004KT M04/M05 A3032 RMK A01 T10361047  RH  092%=      5-min Rain = 0
KAM1 141317Z 34004KT M04/M05 A3032 RMK A01 T10361048  RH  091%=      5-min Rain = 0
KAM1 141318Z 33004KT M04/M05 A3032 RMK A01 T10361049  RH  091%=      5-min Rain = 0
KAM1 141319Z 33004KT M04/M05 A3032 RMK A01 T10361049  RH  091%=      5-min Rain = 0
KAM1 141320Z 33004KT M04/M05 A3032 RMK A01 T10361049  RH  091%=      5-min Rain = 0
KAM1 141321Z 33004KT M04/M05 A3032 RMK A01 T10361051  RH  090%=      5-min Rain = 0
KAM1 141322Z 33004KT M04/M05 A3032 RMK A01 T10361051  RH  090%=      5-min Rain = 0
KAM1 141323Z 33004KT M04/M05 A3032 RMK A01 T10361050  RH  090%=      5-min Rain = 0
KAM1 141324Z 33004KT M04/M05 A3032 RMK A01 T10361051  RH  090%=      5-min Rain = 0
KAM1 141325Z 33004KT M04/M05 A3032 RMK A01 T10371051  RH  090%=      5-min Rain = 0
KAM1 141326Z 33004KT M04/M05 A3032 RMK A01 T10371051  RH  090%=      5-min Rain = 0
KAM1 141327Z 33004KT M04/M05 A3032 RMK A01 T10371050  RH  090%=      5-min Rain = 0
KAM1 141328Z 33004KT M04/M05 A3032 RMK A01 T10361048  RH  091%=      5-min Rain = 0
KAM1 141329Z 33004KT M04/M05 A3032 RMK A01 T10351047  RH  092%=      5-min Rain = 0
KAM1 141330Z 33003KT M03/M05 A3032 RMK A01 T10341046  RH  091%=      5-min Rain = 0
KAM1 141331Z 33003KT M03/M05 A3032 RMK A01 T10341046  RH  091%=      5-min Rain = 0
KAM1 141332Z 33003KT M03/M05 A3032 RMK A01 T10331047  RH  090%=      5-min Rain = 0
KAM1 141333Z 33003KT M03/M05 A3033 RMK A01 T10341048  RH  090%=      5-min Rain = 0
KAM1 141334Z 33003KT M03/M05 A3033 RMK A01 T10331048  RH  089%=      5-min Rain = 0
KAM1 141335Z 33003KT M03/M05 A3033 RMK A01 T10321047  RH  090%=      5-min Rain = 0
KAM1 141336Z 32003KT M03/M05 A3033 RMK A01 T10311046  RH  090%=      5-min Rain = 0
KAM1 141337Z 32003KT M03/M05 A3033 RMK A01 T10311046  RH  089%=      5-min Rain = 0
KAM1 141338Z 32003KT M03/M05 A3033 RMK A01 T10301047  RH  089%=      5-min Rain = 0
KAM1 141339Z 32003KT M03/M05 A3033 RMK A01 T10301047  RH  088%=      5-min Rain = 0
KAM1 141340Z 33003KT M03/M05 A3033 RMK A01 T10301048  RH  087%=      5-min Rain = 0
KAM1 141341Z 33003KT M03/M05 A3033 RMK A01 T10301048  RH  087%=      5-min Rain = 0
KAM1 141342Z 33003KT M03/M05 A3033 RMK A01 T10301049  RH  087%=      5-min Rain = 0
KAM1 141343Z 33003KT M03/M05 A3033 RMK A01 T10301047  RH  088%=      5-min Rain = 0
KAM1 141344Z 33003KT M03/M04 A3033 RMK A01 T10281044  RH  089%=      5-min Rain = 0
KAM1 141345Z 33003KT M03/M05 A3033 RMK A01 T10271045  RH  088%=      5-min Rain = 0
KAM1 141346Z 33003KT M03/M05 A3034 RMK A01 T10271046  RH  087%=      5-min Rain = 0
KAM1 141347Z 33003KT M03/M05 A3034 RMK A01 T10261047  RH  086%=      5-min Rain = 0
KAM1 141348Z 33003KT M03/M05 A3034 RMK A01 T10271048  RH  085%=      5-min Rain = 0
KAM1 141349Z 33003KT M03/M05 A3034 RMK A01 T10261048  RH  085%=      5-min Rain = 0
KAM1 141350Z 34003KT M03/M05 A3034 RMK A01 T10261047  RH  086%=      5-min Rain = 0
KAM1 141351Z 34003KT M03/M05 A3034 RMK A01 T10261046  RH  086%=      5-min Rain = 0
KAM1 141352Z 34003KT M03/M05 A3034 RMK A01 T10251046  RH  086%=      5-min Rain = 0
KAM1 141353Z 34003KT M03/M05 A3034 RMK A01 T10251045  RH  086%=      5-min Rain = 0
KAM1 141354Z 34003KT M02/M04 A3034 RMK A01 T10241044  RH  086%=      5-min Rain = 0
KAM1 141355Z 34004KT M02/M04 A3034 RMK A01 T10231042  RH  087%=      5-min Rain = 0
KAM1 141356Z 34004KT M02/M04 A3035 RMK A01 T10221040  RH  087%=      5-min Rain = 0
KAM1 141357Z 34004KT M02/M04 A3035 RMK A01 T10211039  RH  087%=      5-min Rain = 0
KAM1 141358Z 34004KT M02/M04 A3035 RMK A01 T10191037  RH  087%=      5-min Rain = 0
KAM1 141359Z 34004KT M02/M04 A3035 RMK A01 T10181036  RH  088%=      5-min Rain = 0
KAM1 141400Z 34003KT M02/M03 A3035 RMK A01 T10161034  RH  088%=      5-min Rain = 0
KAM1 141401Z 34003KT M02/M03 A3035 RMK A01 T10151033  RH  087%=      5-min Rain = 0
KAM1 141402Z 34004KT M01/M03 A3035 RMK A01 T10131032  RH  087%=      5-min Rain = 0
KAM1 141403Z 34004KT M01/M03 A3035 RMK A01 T10121032  RH  086%=      5-min Rain = 0
KAM1 141404Z 34004KT M01/M03 A3035 RMK A01 T10111031  RH  086%=      5-min Rain = 0
KAM1 141405Z 34004KT M01/M03 A3035 RMK A01 T10091031  RH  085%=      5-min Rain = 0
KAM1 141406Z 34004KT M01/M03 A3035 RMK A01 T10071030  RH  085%=      5-min Rain = 0
KAM1 141407Z 33003KT M01/M03 A3035 RMK A01 T10061030  RH  084%=      5-min Rain = 0
KAM1 141408Z 33003KT M01/M03 A3035 RMK A01 T10051029  RH  084%=      5-min Rain = 0
KAM1 141409Z 34003KT M00/M03 A3035 RMK A01 T10041029  RH  083%=      5-min Rain = 0
KAM1 141410Z 34003KT M00/M03 A3036 RMK A01 T10021029  RH  082%=      5-min Rain = 0
KAM1 141411Z 34003KT M00/M03 A3036 RMK A01 T10011028  RH  082%=      5-min Rain = 0
KAM1 141412Z 34003KT 00/03 A3036 RMK A01 T00-00-28  RH  082%=      5-min Rain = 0
KAM1 141413Z 33002KT 00/03 A3035 RMK A01 T00000-27  RH  082%=      5-min Rain = 0
KAM1 141414Z 33003KT 00/M03 A3035 RMK A01 T00011027  RH  081%=      5-min Rain = 0
KAM1 141415Z 34003KT 00/M03 A3036 RMK A01 T00031028  RH  080%=      5-min Rain = 0
KAM1 141416Z 34004KT 00/M03 A3036 RMK A01 T00041028  RH  080%=      5-min Rain = 0
KAM1 141417Z 34004KT 00/M03 A3036 RMK A01 T00041028  RH  079%=      5-min Rain = 0
KAM1 141418Z 35004KT 01/M03 A3036 RMK A01 T00051027  RH  079%=      5-min Rain = 0
KAM1 141419Z 34004KT 01/M03 A3036 RMK A01 T00061027  RH  079%=      5-min Rain = 0
KAM1 141420Z 34004KT 01/M03 A3036 RMK A01 T00071027  RH  078%=      5-min Rain = 0
KAM1 141421Z 34004KT 01/M03 A3036 RMK A01 T00081027  RH  078%=      5-min Rain = 0
KAM1 141422Z 35004KT 01/M03 A3036 RMK A01 T00081027  RH  077%=      5-min Rain = 0
KAM1 141423Z 34005KT 01/M03 A3036 RMK A01 T00091027  RH  077%=      5-min Rain = 0
KAM1 141424Z 34005KT 01/M03 A3036 RMK A01 T00101027  RH  076%=      5-min Rain = 0
KAM1 141425Z 35005KT 01/M03 A3036 RMK A01 T00111027  RH  076%=      5-min Rain = 0
KAM1 141426Z 35004KT 01/M03 A3036 RMK A01 T00111027  RH  076%=      5-min Rain = 0
KAM1 141427Z 34005KT 01/M03 A3036 RMK A01 T00121026  RH  076%=      5-min Rain = 0
KAM1 141428Z 34004KT 01/M03 A3036 RMK A01 T00121026  RH  076%=      5-min Rain = 0
KAM1 141429Z 34003KT 01/M03 A3036 RMK A01 T00131026  RH  075%=      5-min Rain = 0
KAM1 141430Z 35003KT 01/M03 A3037 RMK A01 T00141025  RH  075%=      5-min Rain = 0
KAM1 141431Z 35003KT 02/M02 A3037 RMK A01 T00161023  RH  076%=      5-min Rain = 0
KAM1 141432Z 34005KT 02/M02 A3037 RMK A01 T00171022  RH  075%=      5-min Rain = 0
KAM1 141433Z 35005KT 02/M02 A3037 RMK A01 T00181023  RH  074%=      5-min Rain = 0
KAM1 141434Z 35005KT 02/M02 A3037 RMK A01 T00181024  RH  074%=      5-min Rain = 0
KAM1 141435Z 35005KT 02/M02 A3037 RMK A01 T00191023  RH  074%=      5-min Rain = 0
KAM1 141436Z 00005KT 02/M02 A3037 RMK A01 T00191024  RH  073%=      5-min Rain = 0
KAM1 141437Z 00005KT 02/M02 A3037 RMK A01 T00201024  RH  073%=      5-min Rain = 0
KAM1 141438Z 00006KT 02/M02 A3037 RMK A01 T00201024  RH  072%=      5-min Rain = 0
KAM1 141439Z 00005KT 02/M03 A3037 RMK A01 T00201025  RH  072%=      5-min Rain = 0
KAM1 141440Z 35005KT 02/M02 A3038 RMK A01 T00211024  RH  072%=      5-min Rain = 0
KAM1 141441Z 35005KT 02/M02 A3038 RMK A01 T00211023  RH  072%=      5-min Rain = 0
KAM1 141442Z 35004KT 02/M02 A3038 RMK A01 T00221023  RH  072%=      5-min Rain = 0
KAM1 141443Z 35006KT 02/M02 A3038 RMK A01 T00231022  RH  072%=      5-min Rain = 0
KAM1 141444Z 35006KT 02/M02 A3038 RMK A01 T00241022  RH  072%=      5-min Rain = 0
KAM1 141445Z 36004KT 02/M02 A3038 RMK A01 T00241023  RH  071%=      5-min Rain = 0
KAM1 141446Z 36004KT 02/M02 A3038 RMK A01 T00241022  RH  072%=      5-min Rain = 0
KAM1 141447Z 35003KT 03/M02 A3038 RMK A01 T00251021  RH  072%=      5-min Rain = 0
KAM1 141448Z 00005KT 03/M02 A3038 RMK A01 T00271019  RH  072%=      5-min Rain = 0
KAM1 141449Z 35004KT 03/M02 A3038 RMK A01 T00281020  RH  071%=      5-min Rain = 0
KAM1 141450Z 00004KT 03/M02 A3038 RMK A01 T00281020  RH  071%=      5-min Rain = 0
KAM1 141451Z 00005KT 03/M02 A3038 RMK A01 T00281021  RH  070%=      5-min Rain = 0
KAM1 141452Z 36004KT 03/M02 A3038 RMK A01 T00281021  RH  070%=      5-min Rain = 0
KAM1 141453Z 35004KT 03/M02 A3038 RMK A01 T00271021  RH  071%=      5-min Rain = 0
KAM1 141454Z 34004KT 03/M02 A3038 RMK A01 T00271021  RH  071%=      5-min Rain = 0
KAM1 141455Z 36003KT 03/M02 A3038 RMK A01 T00281019  RH  071%=      5-min Rain = 0
KAM1 141456Z 00004KT 03/M02 A3038 RMK A01 T00291019  RH  071%=      5-min Rain = 0
KAM1 141457Z 35003KT 03/M02 A3038 RMK A01 T00301018  RH  071%=      5-min Rain = 0
KAM1 141458Z 33004KT 03/M02 A3038 RMK A01 T00311017  RH  071%=      5-min Rain = 0
KAM1 141459Z 34004KT 03/M02 A3038 RMK A01 T00311018  RH  070%=      5-min Rain = 0
KAM1 141500Z 36003KT 03/M02 A3038 RMK A01 T00311019  RH  070%=      5-min Rain = 0
KAM1 141501Z 34003KT 03/M02 A3038 RMK A01 T00311019  RH  070%=      5-min Rain = 0
KAM1 141502Z 35003KT 03/M02 A3038 RMK A01 T00311018  RH  070%=      5-min Rain = 0
KAM1 141503Z 01003KT 03/M02 A3039 RMK A01 T00311018  RH  070%=      5-min Rain = 0
KAM1 141504Z 00003KT 03/M02 A3039 RMK A01 T00321018  RH  070%=      5-min Rain = 0
KAM1 141505Z 35003KT 03/M02 A3039 RMK A01 T00321017  RH  070%=      5-min Rain = 0
KAM1 141506Z 01004KT 03/M02 A3039 RMK A01 T00331016  RH  070%=      5-min Rain = 0
KAM1 141507Z 36002KT 03/M02 A3039 RMK A01 T00341016  RH  070%=      5-min Rain = 0
KAM1 141508Z 35004KT 04/M02 A3039 RMK A01 T00351015  RH  070%=      5-min Rain = 0
KAM1 141509Z 35005KT 04/M01 A3039 RMK A01 T00361014  RH  070%=      5-min Rain = 0
KAM1 141510Z 34005KT 04/M01 A3039 RMK A01 T00361014  RH  069%=      5-min Rain = 0
KAM1 141511Z 33004KT 04/M02 A3039 RMK A01 T00361015  RH  069%=      5-min Rain = 0
KAM1 141512Z 36004KT 04/M02 A3039 RMK A01 T00361015  RH  069%=      5-min Rain = 0
KAM1 141513Z 01003KT 04/M02 A3039 RMK A01 T00371015  RH  069%=      5-min Rain = 0
KAM1 141514Z 01002KT 04/M02 A3039 RMK A01 T00361016  RH  068%=      5-min Rain = 0
KAM1 141515Z 01003KT 04/M02 A3039 RMK A01 T00361015  RH  069%=      5-min Rain = 0
KAM1 141516Z 34004KT 04/M01 A3039 RMK A01 T00371014  RH  069%=      5-min Rain = 0
KAM1 141517Z 35004KT 04/M02 A3039 RMK A01 T00381016  RH  068%=      5-min Rain = 0
KAM1 141518Z 33004KT 04/M02 A3039 RMK A01 T00361016  RH  068%=      5-min Rain = 0
KAM1 141519Z 34005KT 04/M02 A3039 RMK A01 T00371016  RH  069%=      5-min Rain = 0
KAM1 141520Z 36004KT 04/M02 A3039 RMK A01 T00371016  RH  068%=      5-min Rain = 0
KAM1 141521Z 35004KT 04/M02 A304 RMK A01 T00361016  RH  068%=      5-min Rain = 0
KAM1 141522Z 33003KT 04/M02 A304 RMK A01 T00371015  RH  069%=      5-min Rain = 0
KAM1 141523Z 35004KT 04/M01 A304 RMK A01 T00391012  RH  069%=      5-min Rain = 0
KAM1 141524Z 35004KT 04/M01 A304 RMK A01 T00421012  RH  068%=      5-min Rain = 0
KAM1 141525Z 33004KT 04/M01 A304 RMK A01 T00421014  RH  067%=      5-min Rain = 0
KAM1 141526Z 35004KT 04/M01 A304 RMK A01 T00411014  RH  067%=      5-min Rain = 0
KAM1 141527Z 35003KT 04/M01 A304 RMK A01 T00421013  RH  068%=      5-min Rain = 0
KAM1 141528Z 36005KT 04/M01 A304 RMK A01 T00441012  RH  067%=      5-min Rain = 0
KAM1 141529Z 36004KT 04/M01 A304 RMK A01 T00441013  RH  066%=      5-min Rain = 0
KAM1 141530Z 01002KT 04/M01 A304 RMK A01 T00431013  RH  067%=      5-min Rain = 0
KAM1 141531Z 01004KT 04/M01 A304 RMK A01 T00431013  RH  067%=      5-min Rain = 0
KAM1 141532Z 01005KT 04/M01 A304 RMK A01 T00441011  RH  067%=      5-min Rain = 0
KAM1 141533Z 01006KT 05/M01 A304 RMK A01 T00461009  RH  068%=      5-min Rain = 0
KAM1 141534Z 03006KT 05/M01 A304 RMK A01 T00471010  RH  067%=      5-min Rain = 0
KAM1 141535Z 05005KT 05/M01 A304 RMK A01 T00471010  RH  067%=      5-min Rain = 0
KAM1 141536Z 04006KT 05/M01 A304 RMK A01 T00461010  RH  067%=      5-min Rain = 0
KAM1 141537Z 03008KT 05/M01 A304 RMK A01 T00471010  RH  067%=      5-min Rain = 0
KAM1 141538Z 02007KT 05/M01 A304 RMK A01 T00471010  RH  067%=      5-min Rain = 0
KAM1 141539Z 03004KT 05/M01 A304 RMK A01 T00461010  RH  067%=      5-min Rain = 0
KAM1 141540Z 04004KT 05/M01 A304 RMK A01 T00461010  RH  067%=      5-min Rain = 0
KAM1 141541Z 02005KT 05/M01 A304 RMK A01 T00461010  RH  067%=      5-min Rain = 0
KAM1 141542Z 36005KT 05/M01 A304 RMK A01 T00471010  RH  067%=      5-min Rain = 0
KAM1 141543Z 01004KT 05/M01 A304 RMK A01 T00471010  RH  067%=      5-min Rain = 0
KAM1 141544Z 02004KT 05/M01 A304 RMK A01 T00491008  RH  067%=      5-min Rain = 0
KAM1 141545Z 01005KT 05/M01 A304 RMK A01 T00501008  RH  066%=      5-min Rain = 0
KAM1 141546Z 02005KT 05/M01 A304 RMK A01 T00501010  RH  065%=      5-min Rain = 0
KAM1 141547Z 01008KT 05/M01 A304 RMK A01 T00491011  RH  065%=      5-min Rain = 0
KAM1 141548Z 02007KT 05/M01 A304 RMK A01 T00491009  RH  066%=      5-min Rain = 0
KAM1 141549Z 04006KT 05/M01 A304 RMK A01 T00491009  RH  066%=      5-min Rain = 0
KAM1 141550Z 04005KT 05/M01 A304 RMK A01 T00511008  RH  066%=      5-min Rain = 0
KAM1 141551Z 04004KT 05/M01 A304 RMK A01 T00511010  RH  065%=      5-min Rain = 0
KAM1 141552Z 04004KT 05/M01 A304 RMK A01 T00501009  RH  066%=      5-min Rain = 0
KAM1 141553Z 02006KT 05/M01 A304 RMK A01 T00531006  RH  066%=      5-min Rain = 0
KAM1 141554Z 04006KT 05/M01 A304 RMK A01 T00541008  RH  064%=      5-min Rain = 0
KAM1 141555Z 02005KT 05/M01 A304 RMK A01 T00531009  RH  064%=      5-min Rain = 0
KAM1 141556Z 02004KT 05/M01 A304 RMK A01 T00531008  RH  065%=      5-min Rain = 0
KAM1 141557Z 03005KT 05/M01 A304 RMK A01 T00541008  RH  064%=      5-min Rain = 0
KAM1 141558Z 03005KT 05/M01 A304 RMK A01 T00541009  RH  064%=      5-min Rain = 0
KAM1 141559Z 01005KT 05/M01 A304 RMK A01 T00531008  RH  065%=      5-min Rain = 0
KAM1 141600Z 03005KT 06/M01 A304 RMK A01 T00551007  RH  064%=      5-min Rain = 0
KAM1 141601Z 03006KT 06/M01 A304 RMK A01 T00561007  RH  064%=      5-min Rain = 0
KAM1 141602Z 04007KT 06/M01 A3041 RMK A01 T00561007  RH  064%=      5-min Rain = 0
KAM1 141603Z 05005KT 06/M01 A304 RMK A01 T00561008  RH  064%=      5-min Rain = 0
KAM1 141604Z 05006KT 06/M01 A304 RMK A01 T00561008  RH  064%=      5-min Rain = 0
KAM1 141605Z 03006KT 06/M01 A3041 RMK A01 T00571006  RH  064%=      5-min Rain = 0
KAM1 141606Z 04005KT 06/M00 A3041 RMK A01 T00601004  RH  063%=      5-min Rain = 0
KAM1 141607Z 04007KT 06/M01 A3041 RMK A01 T00611005  RH  063%=      5-min Rain = 0
KAM1 141608Z 05006KT 06/M01 A3041 RMK A01 T00601008  RH  062%=      5-min Rain = 0
KAM1 141609Z 05005KT 06/M01 A3041 RMK A01 T00581008  RH  063%=      5-min Rain = 0
KAM1 141610Z 05007KT 06/M01 A3041 RMK A01 T00581007  RH  063%=      5-min Rain = 0
KAM1 141611Z 03007KT 06/M01 A3041 RMK A01 T00581007  RH  063%=      5-min Rain = 0
KAM1 141612Z 04006KT 06/M01 A3041 RMK A01 T00581008  RH  063%=      5-min Rain = 0
KAM1 141613Z 04004KT 06/M01 A3041 RMK A01 T00571008  RH  063%=      5-min Rain = 0
KAM1 141614Z 04004KT 06/M01 A3041 RMK A01 T00561008  RH  063%=      5-min Rain = 0
KAM1 141615Z 03004KT 06/M01 A3041 RMK A01 T00571007  RH  064%=      5-min Rain = 0
KAM1 141616Z 05005KT 06/M00 A3041 RMK A01 T00601004  RH  064%=      5-min Rain = 0
KAM1 141617Z 06006KT 06/M01 A3041 RMK A01 T00611005  RH  063%=      5-min Rain = 0
KAM1 141618Z 04005KT 06/M01 A3041 RMK A01 T00621005  RH  062%=      5-min Rain = 0
KAM1 141619Z 05005KT 06/M01 A3041 RMK A01 T00611005  RH  062%=      5-min Rain = 0
KAM1 141620Z 05006KT 06/M01 A3041 RMK A01 T00611006  RH  062%=      5-min Rain = 0
KAM1 141621Z 02006KT 06/M00 A3041 RMK A01 T00621004  RH  063%=      5-min Rain = 0
KAM1 141622Z 02005KT 06/M00 A3041 RMK A01 T00641004  RH  062%=      5-min Rain = 0
KAM1 141623Z 02004G9KT 06/M01 A3041 RMK A01 T00621007  RH  061%=      5-min Rain = 0
KAM1 141624Z 02009KT 06/M01 A3041 RMK A01 T00611006  RH  062%=      5-min Rain = 0
KAM1 141625Z 04008KT 06/M01 A3041 RMK A01 T00621005  RH  062%=      5-min Rain = 0
KAM1 141626Z 04010KT 06/M01 A3041 RMK A01 T00621005  RH  062%=      5-min Rain = 0
KAM1 141627Z 04008KT 06/M00 A3041 RMK A01 T00631004  RH  062%=      5-min Rain = 0
KAM1 141628Z 04006KT 06/M01 A3041 RMK A01 T00641005  RH  062%=      5-min Rain = 0
KAM1 141629Z 04009KT 07/M00 A3041 RMK A01 T00651003  RH  062%=      5-min Rain = 0
KAM1 141630Z 04010KT 07/M00 A3041 RMK A01 T00661004  RH  061%=      5-min Rain = 0
KAM1 141631Z 04008KT 07/M00 A3041 RMK A01 T00671004  RH  060%=      5-min Rain = 0
KAM1 141632Z 04006KT 07/M01 A3041 RMK A01 T00671005  RH  060%=      5-min Rain = 0
KAM1 141633Z 05006KT 07/M00 A3041 RMK A01 T00671004  RH  061%=      5-min Rain = 0
KAM1 141634Z 05006KT 07/M00 A3041 RMK A01 T00681004  RH  060%=      5-min Rain = 0
KAM1 141635Z 05006KT 07/M00 A3041 RMK A01 T00691002  RH  060%=      5-min Rain = 0
KAM1 141636Z 02008KT 07/M00 A3041 RMK A01 T00711002  RH  060%=      5-min Rain = 0
KAM1 141637Z 04008KT 07/M00 A3041 RMK A01 T00721004  RH  059%=      5-min Rain = 0
KAM1 141638Z 04006KT 07/M00 A3041 RMK A01 T00711004  RH  059%=      5-min Rain = 0
KAM1 141639Z 03007KT 07/M00 A3041 RMK A01 T00711004  RH  059%=      5-min Rain = 0
KAM1 141640Z 03005KT 07/M01 A3041 RMK A01 T00701005  RH  059%=      5-min Rain = 0
KAM1 141641Z 03007KT 07/M01 A3041 RMK A01 T00681006  RH  059%=      5-min Rain = 0
KAM1 141642Z 04006KT 07/M01 A3041 RMK A01 T00671007  RH  059%=      5-min Rain = 0
KAM1 141643Z 03007KT 07/M01 A3041 RMK A01 T00661007  RH  060%=      5-min Rain = 0
KAM1 141644Z 03007KT 07/M01 A3041 RMK A01 T00661006  RH  060%=      5-min Rain = 0
KAM1 141645Z 03004KT 07/M01 A3041 RMK A01 T00671007  RH  059%=      5-min Rain = 0
KAM1 141646Z 04006KT 07/M00 A3041 RMK A01 T00691003  RH  060%=      5-min Rain = 0
KAM1 141647Z 04005KT 07/M01 A3041 RMK A01 T00701005  RH  059%=      5-min Rain = 0
KAM1 141648Z 03006KT 07/M01 A3041 RMK A01 T00701007  RH  058%=      5-min Rain = 0
KAM1 141649Z 02006KT 07/M01 A3041 RMK A01 T00691007  RH  058%=      5-min Rain = 0
KAM1 141650Z 05006KT 07/M01 A3041 RMK A01 T00701005  RH  059%=      5-min Rain = 0
KAM1 141651Z 05007KT 07/M01 A3041 RMK A01 T00721006  RH  058%=      5-min Rain = 0
KAM1 141652Z 04007KT 07/M01 A3041 RMK A01 T00721005  RH  058%=      5-min Rain = 0
KAM1 141653Z 06006KT 07/M01 A3041 RMK A01 T00731005  RH  058%=      5-min Rain = 0
KAM1 141654Z 08006KT 07/M00 A3041 RMK A01 T00731004  RH  058%=      5-min Rain = 0
KAM1 141655Z 06007KT 07/M01 A3041 RMK A01 T00741005  RH  057%=      5-min Rain = 0
KAM1 141656Z 07005KT 07/M01 A3041 RMK A01 T00741005  RH  057%=      5-min Rain = 0
KAM1 141657Z 05004KT 07/M00 A3041 RMK A01 T00741004  RH  058%=      5-min Rain = 0
KAM1 141658Z 03007KT 08/M01 A3041 RMK A01 T00751005  RH  057%=      5-min Rain = 0
KAM1 141659Z 02007KT 08/M01 A3041 RMK A01 T00751006  RH  056%=      5-min Rain = 0
KAM1 141700Z 01008KT 08/M01 A3041 RMK A01 T00751006  RH  056%=      5-min Rain = 0
KAM1 141701Z 02007KT 07/M01 A3041 RMK A01 T00741008  RH  056%=      5-min Rain = 0
KAM1 141702Z 02003KT 07/M01 A3041 RMK A01 T00721009  RH  057%=      5-min Rain = 0
KAM1 141703Z 02003KT 07/M01 A3041 RMK A01 T00701007  RH  058%=      5-min Rain = 0
KAM1 141704Z 01006KT 07/M01 A3041 RMK A01 T00721006  RH  058%=      5-min Rain = 0
KAM1 141705Z 03004KT 07/M01 A3041 RMK A01 T00741005  RH  057%=      5-min Rain = 0
KAM1 141706Z 02006KT 08/M01 A3041 RMK A01 T00751006  RH  056%=      5-min Rain = 0
KAM1 141707Z 01004KT 08/M01 A3041 RMK A01 T00751006  RH  056%=      5-min Rain = 0
KAM1 141708Z 02005KT 08/M01 A3041 RMK A01 T00761006  RH  056%=      5-min Rain = 0
KAM1 141709Z 02004KT 08/M01 A3041 RMK A01 T00761006  RH  056%=      5-min Rain = 0
KAM1 141710Z 04004KT 08/M01 A3041 RMK A01 T00771005  RH  056%=      5-min Rain = 0
KAM1 141711Z 05004KT 08/M01 A3041 RMK A01 T00791005  RH  056%=      5-min Rain = 0
KAM1 141712Z 01005KT 08/M01 A3041 RMK A01 T00791005  RH  055%=      5-min Rain = 0
KAM1 141713Z 02006KT 08/M01 A3042 RMK A01 T00801005  RH  055%=      5-min Rain = 0
KAM1 141714Z 02006KT 08/M00 A3041 RMK A01 T00801004  RH  055%=      5-min Rain = 0
KAM1 141715Z 06005KT 08/M00 A3041 RMK A01 T00831002  RH  055%=      5-min Rain = 0
KAM1 141716Z 07006KT 08/M00 A3041 RMK A01 T00841003  RH  054%=      5-min Rain = 0
KAM1 141717Z 07006KT 08/M00 A3041 RMK A01 T00831003  RH  054%=      5-min Rain = 0
KAM1 141718Z 04008KT 08/M00 A3042 RMK A01 T00841003  RH  054%=      5-min Rain = 0
KAM1 141719Z 03008KT 08/M00 A3042 RMK A01 T00831004  RH  054%=      5-min Rain = 0
KAM1 141720Z 05007KT 08/M00 A3042 RMK A01 T00841002  RH  055%=      5-min Rain = 0
KAM1 141721Z 05007KT 09/M00 A3041 RMK A01 T00851004  RH  054%=      5-min Rain = 0
KAM1 141722Z 01006KT 09/M00 A3041 RMK A01 T00851002  RH  054%=      5-min Rain = 0
KAM1 141723Z 01007KT 09/M00 A3041 RMK A01 T00861003  RH  054%=      5-min Rain = 0
KAM1 141724Z 00005KT 09/M01 A3041 RMK A01 T00851006  RH  053%=      5-min Rain = 0
KAM1 141725Z 03006KT 08/M01 A3041 RMK A01 T00831005  RH  054%=      5-min Rain = 0
KAM1 141726Z 07006KT 08/M01 A3041 RMK A01 T00831005  RH  054%=      5-min Rain = 0
KAM1 141727Z 07006KT 08/M00 A3041 RMK A01 T00841003  RH  054%=      5-min Rain = 0
KAM1 141728Z 07007KT 09/M00 A3041 RMK A01 T00861004  RH  053%=      5-min Rain = 0
KAM1 141729Z 08005KT 09/M00 A3041 RMK A01 T00861003  RH  053%=      5-min Rain = 0
KAM1 141730Z 09004KT 09/M00 A3041 RMK A01 T00861003  RH  053%=      5-min Rain = 0
KAM1 141731Z 08004KT 09/M00 A3041 RMK A01 T00871003  RH  053%=      5-min Rain = 0
KAM1 141732Z 07006KT 09/M00 A3041 RMK A01 T00891002  RH  053%=      5-min Rain = 0
KAM1 141733Z 07004KT 09/M00 A3041 RMK A01 T00881004  RH  052%=      5-min Rain = 0
KAM1 141734Z 06004G9KT 09/M01 A3041 RMK A01 T00861005  RH  053%=      5-min Rain = 0
KAM1 141735Z 05008KT 09/M00 A3041 RMK A01 T00861004  RH  053%=      5-min Rain = 0
KAM1 141736Z 04006KT 09/M01 A3041 RMK A01 T00851005  RH  053%=      5-min Rain = 0
KAM1 141737Z 04006KT 09/M00 A3041 RMK A01 T00851003  RH  054%=      5-min Rain = 0
KAM1 141738Z 06004KT 09/M00 A3041 RMK A01 T00871004  RH  053%=      5-min Rain = 0
KAM1 141739Z 04004KT 09/M00 A3041 RMK A01 T00871003  RH  053%=      5-min Rain = 0
KAM1 141740Z 05003KT 09/00 A3041 RMK A01 T009000-0  RH  053%=      5-min Rain = 0
KAM1 141741Z 04007KT 09/00 A3041 RMK A01 T00930001  RH  052%=      5-min Rain = 0
KAM1 141742Z 02008KT 09/M00 A3041 RMK A01 T00941002  RH  051%=      5-min Rain = 0
KAM1 141743Z 03007KT 09/M00 A3041 RMK A01 T00921002  RH  052%=      5-min Rain = 0
KAM1 141744Z 04006KT 09/M00 A3041 RMK A01 T00931001  RH  052%=      5-min Rain = 0
KAM1 141745Z 05004KT 09/M00 A3041 RMK A01 T00931002  RH  052%=      5-min Rain = 0
KAM1 141746Z 04008KT 09/M00 A3041 RMK A01 T00931002  RH  052%=      5-min Rain = 0
KAM1 141747Z 05008KT 09/M00 A3041 RMK A01 T00931002  RH  051%=      5-min Rain = 0
KAM1 141748Z 05008KT 09/M00 A3041 RMK A01 T00931002  RH  051%=      5-min Rain = 0
KAM1 141749Z 04009KT 10/00 A3041 RMK A01 T00950001  RH  052%=      5-min Rain = 0
KAM1 141750Z 05007KT 10/M00 A3041 RMK A01 T00951002  RH  051%=      5-min Rain = 0
KAM1 141751Z 03007KT 09/M00 A3041 RMK A01 T00941003  RH  051%=      5-min Rain = 0
KAM1 141752Z 01006KT 09/M00 A3041 RMK A01 T00931004  RH  050%=      5-min Rain = 0
KAM1 141753Z 03007KT 09/M00 A3041 RMK A01 T00941002  RH  051%=      5-min Rain = 0
KAM1 141754Z 02006KT 10/00 A304 RMK A01 T00980001  RH  051%=      5-min Rain = 0
KAM1 141755Z 02008KT 10/00 A304 RMK A01 T01020001  RH  050%=      5-min Rain = 0
KAM1 141756Z 04011KT 10/M00 A304 RMK A01 T01031002  RH  048%=      5-min Rain = 0
KAM1 141757Z 04009KT 10/M01 A3041 RMK A01 T01011006  RH  048%=      5-min Rain = 0
KAM1 141758Z 03011KT 10/M01 A304 RMK A01 T00971006  RH  049%=      5-min Rain = 0
KAM1 141759Z 04010KT 10/M01 A3041 RMK A01 T00971005  RH  049%=      5-min Rain = 0
KAM1 141800Z 05009KT 10/M01 A3041 RMK A01 T00971005  RH  049%=      5-min Rain = 0
KAM1 141801Z 04009KT 10/M01 A304 RMK A01 T00971005  RH  049%=      5-min Rain = 0
KAM1 141802Z 04007KT 10/M01 A304 RMK A01 T00971005  RH  049%=      5-min Rain = 0
KAM1 141803Z 06007KT 10/M00 A304 RMK A01 T00991001  RH  050%=      5-min Rain = 0
KAM1 141804Z 07004KT 10/M00 A304 RMK A01 T01011002  RH  049%=      5-min Rain = 0
KAM1 141805Z 06006KT 10/00 A304 RMK A01 T010200-0  RH  049%=      5-min Rain = 0
KAM1 141806Z 02008KT 10/M00 A304 RMK A01 T01021001  RH  049%=      5-min Rain = 0
KAM1 141807Z 02010KT 10/M00 A304 RMK A01 T01031001  RH  048%=      5-min Rain = 0
KAM1 141808Z 03009KT 11/M00 A304 RMK A01 T01051001  RH  048%=      5-min Rain = 0
KAM1 141809Z 03009KT 11/M00 A304 RMK A01 T01051001  RH  048%=      5-min Rain = 0
KAM1 141810Z 02008KT 11/M00 A304 RMK A01 T01051002  RH  047%=      5-min Rain = 0
KAM1 141811Z 02005KT 10/M01 A304 RMK A01 T01011007  RH  047%=      5-min Rain = 0
KAM1 141812Z 03005KT 10/M01 A304 RMK A01 T00981007  RH  048%=      5-min Rain = 0
KAM1 141813Z 04005KT 10/M01 A304 RMK A01 T00971005  RH  049%=      5-min Rain = 0
KAM1 141814Z 04006KT 10/M00 A304 RMK A01 T00991004  RH  049%=      5-min Rain = 0
KAM1 141815Z 02009KT 10/M00 A304 RMK A01 T01001003  RH  049%=      5-min Rain = 0
KAM1 141816Z 03007KT 10/M00 A304 RMK A01 T01011003  RH  048%=      5-min Rain = 0
KAM1 141817Z 06004KT 10/M01 A304 RMK A01 T01001005  RH  048%=      5-min Rain = 0
KAM1 141818Z 06006G11KT 10/M00 A304 RMK A01 T01011001  RH  049%=      5-min Rain = 0
KAM1 141819Z 05009KT 10/M00 A304 RMK A01 T01041004  RH  047%=      5-min Rain = 0
KAM1 141820Z 07008KT 10/M00 A304 RMK A01 T01031004  RH  047%=      5-min Rain = 0
KAM1 141821Z 06008KT 10/M00 A304 RMK A01 T01041004  RH  047%=      5-min Rain = 0
KAM1 141822Z 07009KT 10/M01 A304 RMK A01 T01031006  RH  047%=      5-min Rain = 0
KAM1 141823Z 06008KT 10/M01 A304 RMK A01 T01021006  RH  047%=      5-min Rain = 0
KAM1 141824Z 07011KT 10/M01 A304 RMK A01 T01021008  RH  047%=      5-min Rain = 0
KAM1 141825Z 07010KT 10/M01 A304 RMK A01 T01011007  RH  047%=      5-min Rain = 0
KAM1 141826Z 07009KT 10/M00 A304 RMK A01 T01021004  RH  048%=      5-min Rain = 0
KAM1 141827Z 06007KT 11/M00 A304 RMK A01 T01051003  RH  047%=      5-min Rain = 0
KAM1 141828Z 05007KT 11/M00 A304 RMK A01 T01061002  RH  047%=      5-min Rain = 0
KAM1 141829Z 06010KT 11/M00 A304 RMK A01 T01081002  RH  046%=      5-min Rain = 0
KAM1 141830Z 06006KT 11/M01 A304 RMK A01 T01071006  RH  046%=      5-min Rain = 0
KAM1 141831Z 06006KT 10/M01 A304 RMK A01 T01031008  RH  046%=      5-min Rain = 0
KAM1 141832Z 05005KT 10/M01 A304 RMK A01 T01011008  RH  047%=      5-min Rain = 0
KAM1 141833Z 05008KT 10/M01 A304 RMK A01 T01011006  RH  048%=      5-min Rain = 0
KAM1 141834Z 05004KT 10/M01 A304 RMK A01 T01021006  RH  047%=      5-min Rain = 0
KAM1 141835Z 04007KT 10/M00 A304 RMK A01 T01021004  RH  048%=      5-min Rain = 0
KAM1 141836Z 07006KT 10/M01 A304 RMK A01 T01031005  RH  047%=      5-min Rain = 0
KAM1 141837Z 06006KT 10/M00 A304 RMK A01 T01031004  RH  047%=      5-min Rain = 0
KAM1 141838Z 05009G14KT 10/M01 A304 RMK A01 T01041005  RH  047%=      5-min Rain = 0
KAM1 141839Z 03007KT 11/M00 A304 RMK A01 T01071002  RH  047%=      5-min Rain = 0
KAM1 141840Z 05009KT 11/M01 A304 RMK A01 T01071005  RH  046%=      5-min Rain = 0
KAM1 141841Z 06010KT 11/M01 A304 RMK A01 T01061005  RH  046%=      5-min Rain = 0
KAM1 141842Z 05007KT 11/M00 A3039 RMK A01 T01051004  RH  047%=      5-min Rain = 0
KAM1 141843Z 05008KT 11/M00 A3039 RMK A01 T01061003  RH  047%=      5-min Rain = 0
KAM1 141844Z 05008KT 11/M01 A3039 RMK A01 T01061005  RH  046%=      5-min Rain = 0
KAM1 141845Z 04007KT 11/M00 A3039 RMK A01 T01061004  RH  047%=      5-min Rain = 0
KAM1 141846Z 04005KT 11/M00 A3039 RMK A01 T01071004  RH  046%=      5-min Rain = 0
KAM1 141847Z 02006KT 11/M00 A3039 RMK A01 T01071004  RH  046%=      5-min Rain = 0
KAM1 141848Z 03005KT 11/M01 A3039 RMK A01 T01061007  RH  045%=      5-min Rain = 0
KAM1 141849Z 05006KT 11/M01 A3039 RMK A01 T01061006  RH  046%=      5-min Rain = 0
KAM1 141850Z 06011KT 11/M01 A3039 RMK A01 T01071005  RH  046%=      5-min Rain = 0
KAM1 141851Z 07009KT 11/M01 A3039 RMK A01 T01081005  RH  046%=      5-min Rain = 0
KAM1 141852Z 05007KT 11/M01 A3039 RMK A01 T01081005  RH  045%=      5-min Rain = 0
KAM1 141853Z 06007KT 11/M01 A3039 RMK A01 T01081005  RH  045%=      5-min Rain = 0
KAM1 141854Z 06006KT 11/M00 A3039 RMK A01 T01091004  RH  046%=      5-min Rain = 0
KAM1 141855Z 04005KT 11/M00 A3039 RMK A01 T01111004  RH  045%=      5-min Rain = 0
KAM1 141856Z 04005KT 11/M01 A3039 RMK A01 T01101006  RH  045%=      5-min Rain = 0
KAM1 141857Z 05003KT 11/M01 A3039 RMK A01 T01071007  RH  045%=      5-min Rain = 0
KAM1 141858Z 04005KT 11/M01 A3039 RMK A01 T01061007  RH  046%=      5-min Rain = 0
KAM1 141859Z 03007KT 11/M01 A3039 RMK A01 T01061007  RH  045%=      5-min Rain = 0
KAM1 141900Z 04011KT 11/M01 A3039 RMK A01 T01081006  RH  045%=      5-min Rain = 0
KAM1 141901Z 04008KT 11/M01 A3039 RMK A01 T01091006  RH  045%=      5-min Rain = 0
KAM1 141902Z 07008KT 11/M01 A3039 RMK A01 T01091008  RH  045%=      5-min Rain = 0
KAM1 141903Z 07009KT 11/M01 A3039 RMK A01 T01091006  RH  045%=      5-min Rain = 0
KAM1 141904Z 08007KT 11/M01 A3038 RMK A01 T01091008  RH  044%=      5-min Rain = 0
KAM1 141905Z 10004KT 11/M01 A3038 RMK A01 T01081009  RH  044%=      5-min Rain = 0
KAM1 141906Z 08005KT 11/M01 A3038 RMK A01 T01071008  RH  045%=      5-min Rain = 0
KAM1 141907Z 05008KT 11/M01 A3038 RMK A01 T01071008  RH  045%=      5-min Rain = 0
KAM1 141908Z 04008KT 11/M01 A3038 RMK A01 T01061009  RH  045%=      5-min Rain = 0
KAM1 141909Z 04007KT 11/M01 A3038 RMK A01 T01051009  RH  045%=      5-min Rain = 0
KAM1 141910Z 05007KT 11/M01 A3038 RMK A01 T01081005  RH  045%=      5-min Rain = 0
KAM1 141911Z 04008KT 11/M01 A3038 RMK A01 T01101006  RH  045%=      5-min Rain = 0
KAM1 141912Z 03008KT 11/M01 A3038 RMK A01 T01091007  RH  044%=      5-min Rain = 0
KAM1 141913Z 02009KT 11/M01 A3038 RMK A01 T01071008  RH  045%=      5-min Rain = 0
KAM1 141914Z 02008KT 11/M01 A3038 RMK A01 T01061008  RH  045%=      5-min Rain = 0
KAM1 141915Z 00005KT 11/M01 A3038 RMK A01 T01061008  RH  045%=      5-min Rain = 0
KAM1 141916Z 04007KT 11/M01 A3038 RMK A01 T01071005  RH  046%=      5-min Rain = 0
KAM1 141917Z 02005KT 11/M01 A3038 RMK A01 T01081007  RH  045%=      5-min Rain = 0
KAM1 141918Z 02006KT 11/M01 A3038 RMK A01 T01081007  RH  045%=      5-min Rain = 0
KAM1 141919Z 01003KT 11/M01 A3038 RMK A01 T01071009  RH  045%=      5-min Rain = 0
KAM1 141920Z 04007KT 11/M01 A3038 RMK A01 T01051009  RH  045%=      5-min Rain = 0
KAM1 141921Z 04009KT 11/M01 A3038 RMK A01 T01061006  RH  046%=      5-min Rain = 0
KAM1 141922Z 03007KT 11/M01 A3038 RMK A01 T01081007  RH  045%=      5-min Rain = 0
KAM1 141923Z 03004KT 11/M01 A3037 RMK A01 T01081007  RH  045%=      5-min Rain = 0
KAM1 141924Z 04006KT 11/M01 A3038 RMK A01 T01081008  RH  045%=      5-min Rain = 0
KAM1 141925Z 03004KT 11/M01 A3037 RMK A01 T01071010  RH  044%=      5-min Rain = 0
KAM1 141926Z 04006KT 11/M01 A3037 RMK A01 T01071008  RH  045%=      5-min Rain = 0
KAM1 141927Z 04009KT 11/M01 A3037 RMK A01 T01091007  RH  045%=      5-min Rain = 0
KAM1 141928Z 03007KT 11/M01 A3037 RMK A01 T01101006  RH  044%=      5-min Rain = 0
KAM1 141929Z 03006KT 11/M01 A3037 RMK A01 T01111006  RH  044%=      5-min Rain = 0
KAM1 141930Z 01003KT 11/M01 A3037 RMK A01 T01111008  RH  044%=      5-min Rain = 0
KAM1 141931Z 31000KT 11/M01 A3037 RMK A01 T01091009  RH  044%=      5-min Rain = 0
KAM1 141932Z 02002G7KT 11/M01 A3037 RMK A01 T01091008  RH  044%=      5-min Rain = 0
KAM1 141933Z 02005KT 11/M01 A3037 RMK A01 T01111007  RH  044%=      5-min Rain = 0
KAM1 141934Z 03005KT 11/M01 A3037 RMK A01 T01111009  RH  043%=      5-min Rain = 0
KAM1 141935Z 01007KT 11/M01 A3037 RMK A01 T01131005  RH  044%=      5-min Rain = 0
KAM1 141936Z 00006KT 12/M01 A3037 RMK A01 T01151006  RH  043%=      5-min Rain = 0
KAM1 141937Z 01004KT 11/M01 A3037 RMK A01 T01141007  RH  043%=      5-min Rain = 0
KAM1 141938Z 06007KT 11/M01 A3037 RMK A01 T01141005  RH  044%=      5-min Rain = 0
KAM1 141939Z 07009KT 12/M00 A3037 RMK A01 T01181004  RH  043%=      5-min Rain = 0
KAM1 141940Z 07007KT 12/M01 A3037 RMK A01 T01161008  RH  042%=      5-min Rain = 0
KAM1 141941Z 08005KT 11/M01 A3037 RMK A01 T01141009  RH  042%=      5-min Rain = 0
KAM1 141942Z 09005KT 11/M01 A3037 RMK A01 T01131009  RH  043%=      5-min Rain = 0
KAM1 141943Z 07004KT 11/M01 A3037 RMK A01 T01121009  RH  043%=      5-min Rain = 0
KAM1 141944Z 07007KT 11/M01 A3037 RMK A01 T01131008  RH  043%=      5-min Rain = 0
KAM1 141945Z 07006KT 11/M01 A3037 RMK A01 T01131010  RH  042%=      5-min Rain = 0
KAM1 141946Z 08006KT 11/M01 A3037 RMK A01 T01131007  RH  043%=      5-min Rain = 0
KAM1 141947Z 05006KT 11/M01 A3037 RMK A01 T01141008  RH  043%=      5-min Rain = 0
KAM1 141948Z 07007KT 12/M01 A3037 RMK A01 T01151005  RH  043%=      5-min Rain = 0
KAM1 141949Z 08009KT 12/M01 A3037 RMK A01 T01171008  RH  042%=      5-min Rain = 0
KAM1 141950Z 07007KT 12/M01 A3037 RMK A01 T01171007  RH  042%=      5-min Rain = 0
KAM1 141951Z 07007KT 12/M01 A3037 RMK A01 T01171007  RH  042%=      5-min Rain = 0
KAM1 141952Z 07004KT 12/M01 A3037 RMK A01 T01171010  RH  041%=      5-min Rain = 0
KAM1 141953Z 07004KT 12/M01 A3037 RMK A01 T01151010  RH  042%=      5-min Rain = 0
KAM1 141954Z 08001KT 11/M01 A3037 RMK A01 T01141010  RH  042%=      5-min Rain = 0
KAM1 141955Z 07003KT 12/M01 A3037 RMK A01 T01151009  RH  042%=      5-min Rain = 0
KAM1 141956Z 06008KT 12/M01 A3037 RMK A01 T01161010  RH  042%=      5-min Rain = 0
KAM1 141957Z 06006KT 12/M01 A3037 RMK A01 T01161011  RH  041%=      5-min Rain = 0
KAM1 141958Z 08005KT 12/M01 A3037 RMK A01 T01151011  RH  042%=      5-min Rain = 0
KAM1 141959Z 07003KT 12/M01 A3037 RMK A01 T01151012  RH  041%=      5-min Rain = 0
KAM1 142000Z 04006KT 12/M01 A3037 RMK A01 T01151011  RH  042%=      5-min Rain = 0
KAM1 142001Z 03007KT 12/M01 A3037 RMK A01 T01151012  RH  041%=      5-min Rain = 0
KAM1 142002Z 02005KT 12/M01 A3037 RMK A01 T01151012  RH  041%=      5-min Rain = 0
KAM1 142003Z 01003KT 12/M01 A3036 RMK A01 T01151012  RH  041%=      5-min Rain = 0
KAM1 142004Z 02001KT 11/M01 A3036 RMK A01 T01141012  RH  042%=      5-min Rain = 0
KAM1 142005Z 06002KT 11/M01 A3036 RMK A01 T01141009  RH  042%=      5-min Rain = 0
KAM1 142006Z 08004KT 12/M01 A3036 RMK A01 T01161010  RH  041%=      5-min Rain = 0
KAM1 142007Z 09002KT 12/M01 A3036 RMK A01 T01171011  RH  041%=      5-min Rain = 0
KAM1 142008Z 09001KT 12/M01 A3036 RMK A01 T01161013  RH  041%=      5-min Rain = 0
KAM1 142009Z 08001KT 12/M01 A3036 RMK A01 T01151014  RH  041%=      5-min Rain = 0
KAM1 142010Z 06003KT 12/M01 A3036 RMK A01 T01161010  RH  042%=      5-min Rain = 0
KAM1 142011Z 04005KT 12/M01 A3036 RMK A01 T01181010  RH  041%=      5-min Rain = 0
KAM1 142012Z 07008KT 12/M01 A3036 RMK A01 T01181009  RH  041%=      5-min Rain = 0
KAM1 142013Z 05010KT 12/M01 A3036 RMK A01 T01211008  RH  041%=      5-min Rain = 0
KAM1 142014Z 06008KT 12/M01 A3036 RMK A01 T01211010  RH  040%=      5-min Rain = 0
KAM1 142015Z 06006KT 12/M01 A3036 RMK A01 T01201010  RH  041%=      5-min Rain = 0
KAM1 142016Z 06005G11KT 12/M01 A3036 RMK A01 T01201008  RH  041%=      5-min Rain = 0
KAM1 142017Z 05007KT 12/M01 A3036 RMK A01 T01221007  RH  041%=      5-min Rain = 0
KAM1 142018Z 06006KT 12/M01 A3036 RMK A01 T01231012  RH  039%=      5-min Rain = 0
KAM1 142019Z 08006KT 12/M01 A3036 RMK A01 T01201012  RH  040%=      5-min Rain = 0
KAM1 142020Z 07007KT 12/M01 A3036 RMK A01 T01201012  RH  040%=      5-min Rain = 0
KAM1 142021Z 07005KT 12/M01 A3036 RMK A01 T01191013  RH  040%=      5-min Rain = 0
KAM1 142022Z 07003KT 12/M02 A3036 RMK A01 T01171016  RH  040%=      5-min Rain = 0
KAM1 142023Z 06006KT 12/M01 A3036 RMK A01 T01161012  RH  041%=      5-min Rain = 0
KAM1 142024Z 06007KT 12/M01 A3036 RMK A01 T01191011  RH  041%=      5-min Rain = 0
KAM1 142025Z 06006KT 12/M01 A3036 RMK A01 T01191012  RH  040%=      5-min Rain = 0
KAM1 142026Z 07007KT 12/M01 A3036 RMK A01 T01191012  RH  040%=      5-min Rain = 0
KAM1 142027Z 07004KT 12/M01 A3036 RMK A01 T01191013  RH  040%=      5-min Rain = 0
KAM1 142028Z 06005KT 12/M01 A3036 RMK A01 T01201012  RH  040%=      5-min Rain = 0
KAM1 142029Z 08006KT 12/M01 A3036 RMK A01 T01201012  RH  040%=      5-min Rain = 0
KAM1 142030Z 07006KT 12/M01 A3036 RMK A01 T01201012  RH  040%=      5-min Rain = 0
KAM1 142031Z 09007KT 12/M01 A3036 RMK A01 T01211013  RH  039%=      5-min Rain = 0
KAM1 142032Z 08009KT 12/M01 A3036 RMK A01 T01211013  RH  039%=      5-min Rain = 0
KAM1 142033Z 09010KT 12/M01 A3036 RMK A01 T01211014  RH  039%=      5-min Rain = 0
KAM1 142034Z 09008KT 12/M01 A3036 RMK A01 T01211014  RH  039%=      5-min Rain = 0
KAM1 142035Z 09008KT 12/M01 A3036 RMK A01 T01211013  RH  039%=      5-min Rain = 0
KAM1 142036Z 09007KT 12/M01 A3036 RMK A01 T01211014  RH  039%=      5-min Rain = 0
KAM1 142037Z 06005KT 12/M02 A3036 RMK A01 T01191016  RH  039%=      5-min Rain = 0
KAM1 142038Z 08003KT 12/M02 A3036 RMK A01 T01181016  RH  039%=      5-min Rain = 0
KAM1 142039Z 09003KT 12/M02 A3036 RMK A01 T01181016  RH  039%=      5-min Rain = 0
KAM1 142040Z 08003KT 12/M01 A3036 RMK A01 T01181014  RH  040%=      5-min Rain = 0
KAM1 142041Z 07006KT 12/M02 A3036 RMK A01 T01191015  RH  039%=      5-min Rain = 0
KAM1 142042Z 07007KT 12/M01 A3036 RMK A01 T01211011  RH  040%=      5-min Rain = 0
KAM1 142043Z 07008KT 12/M01 A3036 RMK A01 T01231011  RH  040%=      5-min Rain = 0
KAM1 142044Z 09008KT 13/M01 A3036 RMK A01 T01251011  RH  039%=      5-min Rain = 0
KAM1 142045Z 09007KT 13/M01 A3036 RMK A01 T01261011  RH  039%=      5-min Rain = 0
KAM1 142046Z 08009KT 13/M01 A3036 RMK A01 T01261012  RH  038%=      5-min Rain = 0
KAM1 142047Z 09009KT 12/M01 A3036 RMK A01 T01241014  RH  038%=      5-min Rain = 0
KAM1 142048Z 08009KT 12/M01 A3036 RMK A01 T01221014  RH  039%=      5-min Rain = 0
KAM1 142049Z 09006KT 12/M01 A3036 RMK A01 T01221014  RH  039%=      5-min Rain = 0
KAM1 142050Z 09005KT 12/M02 A3036 RMK A01 T01221015  RH  039%=      5-min Rain = 0
KAM1 142051Z 08003KT 12/M02 A3036 RMK A01 T01211017  RH  038%=      5-min Rain = 0
KAM1 142052Z 11004KT 12/M02 A3036 RMK A01 T01191015  RH  039%=      5-min Rain = 0
KAM1 142053Z 11003KT 12/M01 A3036 RMK A01 T01211014  RH  039%=      5-min Rain = 0
KAM1 142054Z 08002KT 12/M02 A3036 RMK A01 T01211017  RH  038%=      5-min Rain = 0
KAM1 142055Z 10005KT 12/M02 A3036 RMK A01 T01201017  RH  039%=      5-min Rain = 0
KAM1 142056Z 10004KT 12/M02 A3036 RMK A01 T01191019  RH  038%=      5-min Rain = 0
KAM1 142057Z 06001KT 12/M02 A3035 RMK A01 T01191018  RH  038%=      5-min Rain = 0
KAM1 142058Z 04000KT 12/M02 A3035 RMK A01 T01181019  RH  039%=      5-min Rain = 0
KAM1 142059Z 09001KT 12/M02 A3035 RMK A01 T01181018  RH  039%=      5-min Rain = 0
KAM1 142100Z 09002G7KT 12/M02 A3035 RMK A01 T01191017  RH  039%=      5-min Rain = 0
KAM1 142101Z 03005KT 12/M02 A3035 RMK A01 T01211017  RH  038%=      5-min Rain = 0
KAM1 142102Z 06006KT 12/M02 A3035 RMK A01 T01201018  RH  038%=      5-min Rain = 0
KAM1 142103Z 06005KT 12/M02 A3035 RMK A01 T01201019  RH  038%=      5-min Rain = 0
KAM1 142104Z 06004KT 12/M02 A3035 RMK A01 T01181018  RH  039%=      5-min Rain = 0
KAM1 142105Z 07003KT 12/M02 A3035 RMK A01 T01181016  RH  039%=      5-min Rain = 0
KAM1 142106Z 05007KT 12/M01 A3035 RMK A01 T01201012  RH  040%=      5-min Rain = 0
KAM1 142107Z 05006KT 12/M01 A3036 RMK A01 T01221013  RH  039%=      5-min Rain = 0
KAM1 142108Z 05006KT 12/M02 A3036 RMK A01 T01231015  RH  039%=      5-min Rain = 0
KAM1 142109Z 08004KT 12/M02 A3036 RMK A01 T01211016  RH  039%=      5-min Rain = 0
KAM1 142110Z 09002KT 12/M02 A3036 RMK A01 T01201016  RH  039%=      5-min Rain = 0
KAM1 142111Z 16001KT 12/M02 A3036 RMK A01 T01201017  RH  039%=      5-min Rain = 0
KAM1 142112Z 15001KT 12/M02 A3036 RMK A01 T01211016  RH  039%=      5-min Rain = 0
KAM1 142113Z 02002KT 12/M02 A3036 RMK A01 T01221016  RH  038%=      5-min Rain = 0
KAM1 142114Z 03005KT 12/M01 A3036 RMK A01 T01231013  RH  039%=      5-min Rain = 0
KAM1 142115Z 04003KT 12/M02 A3036 RMK A01 T01231015  RH  038%=      5-min Rain = 0
KAM1 142116Z 04004KT 12/M01 A3036 RMK A01 T01221014  RH  039%=      5-min Rain = 0
KAM1 142117Z 04005KT 12/M01 A3036 RMK A01 T01241011  RH  039%=      5-min Rain = 0
KAM1 142118Z 03006KT 13/M01 A3036 RMK A01 T01251014  RH  038%=      5-min Rain = 0
KAM1 142119Z 02003KT 12/M02 A3035 RMK A01 T01221017  RH  038%=      5-min Rain = 0
KAM1 142120Z 04002KT 12/M02 A3035 RMK A01 T01201017  RH  038%=      5-min Rain = 0
KAM1 142121Z 04003G11KT 12/M02 A3035 RMK A01 T01191016  RH  039%=      5-min Rain = 0
KAM1 142122Z 08006KT 12/M01 A3036 RMK A01 T01211013  RH  040%=      5-min Rain = 0
KAM1 142123Z 07007KT 12/M01 A3036 RMK A01 T01231012  RH  039%=      5-min Rain = 0
KAM1 142124Z 07004KT 12/M01 A3036 RMK A01 T01231013  RH  039%=      5-min Rain = 0
KAM1 142125Z 07006KT 12/M01 A3036 RMK A01 T01221013  RH  039%=      5-min Rain = 0
KAM1 142126Z 07008KT 12/M01 A3036 RMK A01 T01221013  RH  039%=      5-min Rain = 0
KAM1 142127Z 07006KT 12/M01 A3036 RMK A01 T01231012  RH  039%=      5-min Rain = 0
KAM1 142128Z 08004KT 12/M01 A3036 RMK A01 T01231013  RH  039%=      5-min Rain = 0
KAM1 142129Z 07005KT 12/M01 A3036 RMK A01 T01231013  RH  039%=      5-min Rain = 0
KAM1 142130Z 05004KT 12/M02 A3036 RMK A01 T01221015  RH  038%=      5-min Rain = 0
KAM1 142131Z 03003KT 12/M02 A3036 RMK A01 T01211015  RH  039%=      5-min Rain = 0
KAM1 142132Z 05005KT 12/M01 A3036 RMK A01 T01201013  RH  040%=      5-min Rain = 0
KAM1 142133Z 05004KT 12/M01 A3036 RMK A01 T01211014  RH  039%=      5-min Rain = 0
KAM1 142134Z 08005KT 12/M01 A3036 RMK A01 T01211013  RH  040%=      5-min Rain = 0
KAM1 142135Z 08003KT 12/M01 A3036 RMK A01 T01221013  RH  039%=      5-min Rain = 0
KAM1 142136Z 09003KT 12/M01 A3036 RMK A01 T01221014  RH  039%=      5-min Rain = 0
KAM1 142137Z 05000KT 12/M02 A3036 RMK A01 T01211016  RH  039%=      5-min Rain = 0
KAM1 142138Z 09001KT 12/M02 A3036 RMK A01 T01201016  RH  039%=      5-min Rain = 0
KAM1 142139Z 10002KT 12/M02 A3036 RMK A01 T01201015  RH  039%=      5-min Rain = 0
KAM1 142140Z 11003KT 12/M02 A3036 RMK A01 T01211015  RH  039%=      5-min Rain = 0
KAM1 142141Z 07005KT 12/M02 A3036 RMK A01 T01221015  RH  039%=      5-min Rain = 0
KAM1 142142Z 05003KT 12/M02 A3036 RMK A01 T01221015  RH  039%=      5-min Rain = 0
KAM1 142143Z 05003KT 12/M01 A3036 RMK A01 T01221014  RH  039%=      5-min Rain = 0
KAM1 142144Z 05001KT 12/M01 A3036 RMK A01 T01221013  RH  039%=      5-min Rain = 0
KAM1 142145Z 07002KT 12/M02 A3036 RMK A01 T01221015  RH  039%=      5-min Rain = 0
KAM1 142146Z 07004KT 12/M02 A3036 RMK A01 T01221015  RH  039%=      5-min Rain = 0
KAM1 142147Z 07004KT 12/M02 A3036 RMK A01 T01221015  RH  039%=      5-min Rain = 0
KAM1 142148Z 08004KT 12/M01 A3036 RMK A01 T01211014  RH  039%=      5-min Rain = 0
KAM1 142149Z 08002KT 12/M01 A3036 RMK A01 T01211014  RH  039%=      5-min Rain = 0
KAM1 142150Z 09001KT 12/M02 A3036 RMK A01 T01211016  RH  039%=      5-min Rain = 0
KAM1 142151Z 07001KT 12/M01 A3035 RMK A01 T01221014  RH  039%=      5-min Rain = 0
KAM1 142152Z 08003KT 12/M02 A3035 RMK A01 T01231015  RH  038%=      5-min Rain = 0
KAM1 142153Z 07004KT 12/M01 A3035 RMK A01 T01231014  RH  038%=      5-min Rain = 0
KAM1 142154Z 04003KT 12/M02 A3035 RMK A01 T01221015  RH  038%=      5-min Rain = 0
KAM1 142155Z 03003KT 12/M01 A3035 RMK A01 T01221014  RH  039%=      5-min Rain = 0
KAM1 142156Z 07002KT 12/M01 A3035 RMK A01 T01221014  RH  039%=      5-min Rain = 0
KAM1 142157Z 12003KT 12/M01 A3035 RMK A01 T01211014  RH  039%=      5-min Rain = 0
KAM1 142158Z 14002KT 12/M02 A3035 RMK A01 T01211015  RH  039%=      5-min Rain = 0
KAM1 142159Z 04003KT 12/M01 A3035 RMK A01 T01221014  RH  039%=      5-min Rain = 0
KAM1 142200Z 06004KT 12/M01 A3035 RMK A01 T01221013  RH  039%=      5-min Rain = 0
KAM1 142201Z 08005KT 12/M01 A3035 RMK A01 T01231013  RH  039%=      5-min Rain = 0
KAM1 142202Z 09006KT 12/M01 A3035 RMK A01 T01231013  RH  039%=      5-min Rain = 0
KAM1 142203Z 09007KT 12/M01 A3035 RMK A01 T01231012  RH  039%=      5-min Rain = 0
KAM1 142204Z 08007KT 12/M01 A3035 RMK A01 T01231013  RH  039%=      5-min Rain = 0
KAM1 142205Z 09005KT 12/M01 A3035 RMK A01 T01241013  RH  039%=      5-min Rain = 0
KAM1 142206Z 10005KT 12/M01 A3035 RMK A01 T01231013  RH  039%=      5-min Rain = 0
KAM1 142207Z 10005KT 12/M01 A3035 RMK A01 T01221014  RH  039%=      5-min Rain = 0
KAM1 142208Z 11004KT 12/M02 A3035 RMK A01 T01211015  RH  039%=      5-min Rain = 0
KAM1 142209Z 08005KT 12/M01 A3035 RMK A01 T01201014  RH  039%=      5-min Rain = 0
KAM1 142210Z 09005KT 12/M02 A3035 RMK A01 T01201015  RH  039%=      5-min Rain = 0
KAM1 142211Z 12004KT 12/M02 A3035 RMK A01 T01201015  RH  039%=      5-min Rain = 0
KAM1 142212Z 12005KT 12/M02 A3035 RMK A01 T01201015  RH  039%=      5-min Rain = 0
KAM1 142213Z 10004KT 12/M01 A3035 RMK A01 T01201014  RH  039%=      5-min Rain = 0
KAM1 142214Z 11003KT 12/M01 A3035 RMK A01 T01201014  RH  039%=      5-min Rain = 0
KAM1 142215Z 10003KT 12/M01 A3035 RMK A01 T01201014  RH  039%=      5-min Rain = 0
KAM1 142216Z 11002KT 12/M01 A3035 RMK A01 T01211014  RH  039%=      5-min Rain = 0
KAM1 142217Z 09002KT 12/M01 A3035 RMK A01 T01211013  RH  039%=      5-min Rain = 0
KAM1 142218Z 10003KT 12/M01 A3035 RMK A01 T01211014  RH  039%=      5-min Rain = 0
KAM1 142219Z 10004KT 12/M01 A3035 RMK A01 T01221012  RH  039%=      5-min Rain = 0
KAM1 142220Z 12006KT 12/M01 A3035 RMK A01 T01241012  RH  039%=      5-min Rain = 0
KAM1 142221Z 11005KT 12/M01 A3035 RMK A01 T01231013  RH  039%=      5-min Rain = 0
KAM1 142222Z 11006KT 12/M01 A3035 RMK A01 T01231013  RH  039%=      5-min Rain = 0
KAM1 142223Z 11006KT 12/M01 A3035 RMK A01 T01221014  RH  039%=      5-min Rain = 0
KAM1 142224Z 11006KT 12/M01 A3035 RMK A01 T01211014  RH  039%=      5-min Rain = 0
KAM1 142225Z 12005KT 12/M02 A3035 RMK A01 T01211015  RH  039%=      5-min Rain = 0
KAM1 142226Z 11004KT 12/M02 A3035 RMK A01 T01191016  RH  039%=      5-min Rain = 0
KAM1 142227Z 11003KT 12/M02 A3035 RMK A01 T01181016  RH  039%=      5-min Rain = 0
KAM1 142228Z 09002KT 12/M02 A3035 RMK A01 T01191015  RH  039%=      5-min Rain = 0
KAM1 142229Z 12002KT 12/M02 A3035 RMK A01 T01181016  RH  039%=      5-min Rain = 0
KAM1 142230Z 15003KT 12/M02 A3035 RMK A01 T01181015  RH  040%=      5-min Rain = 0
KAM1 142231Z 13004KT 12/M02 A3035 RMK A01 T01181015  RH  040%=      5-min Rain = 0
KAM1 142232Z 12003KT 12/M02 A3035 RMK A01 T01181016  RH  039%=      5-min Rain = 0
KAM1 142233Z 09004KT 12/M02 A3035 RMK A01 T01181015  RH  040%=      5-min Rain = 0
KAM1 142234Z 09005KT 12/M02 A3035 RMK A01 T01181016  RH  039%=      5-min Rain = 0
KAM1 142235Z 08006KT 12/M02 A3035 RMK A01 T01181016  RH  039%=      5-min Rain = 0
KAM1 142236Z 08006KT 12/M02 A3035 RMK A01 T01181016  RH  039%=      5-min Rain = 0
KAM1 142237Z 11006KT 12/M02 A3035 RMK A01 T01181016  RH  040%=      5-min Rain = 0
KAM1 142238Z 12005KT 12/M02 A3035 RMK A01 T01181015  RH  040%=      5-min Rain = 0
KAM1 142239Z 12005KT 12/M02 A3035 RMK A01 T01171016  RH  040%=      5-min Rain = 0
KAM1 142240Z 11003KT 12/M02 A3035 RMK A01 T01171016  RH  040%=      5-min Rain = 0
KAM1 142241Z 10004KT 12/M02 A3035 RMK A01 T01171016  RH  040%=      5-min Rain = 0
KAM1 142242Z 12003KT 12/M02 A3035 RMK A01 T01171015  RH  040%=      5-min Rain = 0
KAM1 142243Z 12004KT 12/M02 A3035 RMK A01 T01171015  RH  040%=      5-min Rain = 0
KAM1 142244Z 11006KT 12/M02 A3035 RMK A01 T01171015  RH  040%=      5-min Rain = 0
KAM1 142245Z 12006KT 12/M01 A3036 RMK A01 T01171014  RH  040%=      5-min Rain = 0
KAM1 142246Z 12005KT 12/M02 A3036 RMK A01 T01161015  RH  040%=      5-min Rain = 0
KAM1 142247Z 11004KT 12/M02 A3036 RMK A01 T01161015  RH  040%=      5-min Rain = 0
KAM1 142248Z 13004KT 12/M02 A3036 RMK A01 T01151015  RH  040%=      5-min Rain = 0
KAM1 142249Z 14004KT 12/M02 A3036 RMK A01 T01151015  RH  040%=      5-min Rain = 0
KAM1 142250Z 13003KT 12/M02 A3036 RMK A01 T01151015  RH  040%=      5-min Rain = 0
KAM1 142251Z 12004KT 12/M01 A3036 RMK A01 T01161014  RH  040%=      5-min Rain = 0
KAM1 142252Z 12006KT 12/M02 A3036 RMK A01 T01161015  RH  040%=      5-min Rain = 0
KAM1 142253Z 11005KT 12/M02 A3036 RMK A01 T01151015  RH  040%=      5-min Rain = 0
KAM1 142254Z 11004KT 11/M02 A3036 RMK A01 T01141015  RH  041%=      5-min Rain = 0
KAM1 142255Z 12005KT 11/M01 A3036 RMK A01 T01141014  RH  041%=      5-min Rain = 0
KAM1 142256Z 11005KT 11/M01 A3036 RMK A01 T01141013  RH  041%=      5-min Rain = 0
KAM1 142257Z 11006KT 11/M01 A3036 RMK A01 T01131014  RH  041%=      5-min Rain = 0
KAM1 142258Z 11006KT 11/M02 A3036 RMK A01 T01121015  RH  041%=      5-min Rain = 0
KAM1 142259Z 11005KT 11/M02 A3036 RMK A01 T01111016  RH  041%=      5-min Rain = 0
KAM1 142300Z 11004KT 11/M02 A3036 RMK A01 T01111016  RH  041%=      5-min Rain = 0
KAM1 142301Z 11004KT 11/M02 A3036 RMK A01 T01101016  RH  041%=      5-min Rain = 0
KAM1 142302Z 12004KT 11/M02 A3036 RMK A01 T01101016  RH  041%=      5-min Rain = 0
KAM1 142303Z 13004KT 11/M02 A3036 RMK A01 T01101016  RH  042%=      5-min Rain = 0
KAM1 142304Z 13004KT 11/M02 A3036 RMK A01 T01101016  RH  042%=      5-min Rain = 0
KAM1 142305Z 12004KT 11/M02 A3036 RMK A01 T01101015  RH  042%=      5-min Rain = 0
KAM1 142306Z 12004KT 11/M02 A3036 RMK A01 T01101015  RH  042%=      5-min Rain = 0
KAM1 142307Z 13004KT 11/M02 A3036 RMK A01 T01101015  RH  042%=      5-min Rain = 0
KAM1 142308Z 13004KT 11/M02 A3036 RMK A01 T01091016  RH  042%=      5-min Rain = 0
KAM1 142309Z 13005KT 11/M02 A3036 RMK A01 T01081016  RH  042%=      5-min Rain = 0
KAM1 142310Z 12006KT 11/M02 A3036 RMK A01 T01071016  RH  042%=      5-min Rain = 0
KAM1 142311Z 12005KT 11/M02 A3036 RMK A01 T01071016  RH  042%=      5-min Rain = 0
KAM1 142312Z 11005KT 11/M02 A3036 RMK A01 T01061015  RH  043%=      5-min Rain = 0
KAM1 142313Z 11005KT 11/M02 A3036 RMK A01 T01051015  RH  043%=      5-min Rain = 0
KAM1 142314Z 10005KT 10/M02 A3036 RMK A01 T01031015  RH  044%=      5-min Rain = 0
KAM1 142315Z 11005KT 10/M02 A3036 RMK A01 T01021015  RH  044%=      5-min Rain = 0
KAM1 142316Z 11005KT 10/M01 A3036 RMK A01 T01011014  RH  044%=      5-min Rain = 0
KAM1 142317Z 11005KT 10/M01 A3036 RMK A01 T01001014  RH  045%=      5-min Rain = 0
KAM1 142318Z 10005KT 10/M01 A3036 RMK A01 T00991014  RH  045%=      5-min Rain = 0
KAM1 142319Z 10005KT 10/M02 A3036 RMK A01 T00981015  RH  045%=      5-min Rain = 0
KAM1 142320Z 10005KT 10/M02 A3036 RMK A01 T00971015  RH  045%=      5-min Rain = 0
KAM1 142321Z 10005KT 10/M02 A3036 RMK A01 T00961016  RH  046%=      5-min Rain = 0
KAM1 142322Z 10005KT 10/M02 A3036 RMK A01 T00961016  RH  045%=      5-min Rain = 0
KAM1 142323Z 11005KT 10/M02 A3036 RMK A01 T00951017  RH  046%=      5-min Rain = 0
KAM1 142324Z 11005KT 09/M02 A3036 RMK A01 T00941017  RH  046%=      5-min Rain = 0
KAM1 142325Z 11005KT 09/M02 A3036 RMK A01 T00941018  RH  046%=      5-min Rain = 0
KAM1 142326Z 11004KT 09/M02 A3036 RMK A01 T00931017  RH  046%=      5-min Rain = 0
KAM1 142327Z 11004KT 09/M02 A3036 RMK A01 T00911017  RH  046%=      5-min Rain = 0
KAM1 142328Z 11004KT 09/M02 A3036 RMK A01 T00911017  RH  047%=      5-min Rain = 0
KAM1 142329Z 11004KT 09/M02 A3036 RMK A01 T00901017  RH  047%=      5-min Rain = 0
KAM1 142330Z 11004KT 09/M02 A3036 RMK A01 T00891016  RH  047%=      5-min Rain = 0
KAM1 142331Z 11004KT 09/M02 A3036 RMK A01 T00881017  RH  048%=      5-min Rain = 0
KAM1 142332Z 11004KT 09/M02 A3036 RMK A01 T00881017  RH  048%=      5-min Rain = 0
KAM1 142333Z 11004KT 09/M02 A3036 RMK A01 T00861017  RH  048%=      5-min Rain = 0
KAM1 142334Z 10004KT 09/M02 A3036 RMK A01 T00851017  RH  049%=      5-min Rain = 0
KAM1 142335Z 10003KT 08/M02 A3036 RMK A01 T00841017  RH  049%=      5-min Rain = 0
KAM1 142336Z 10004KT 08/M02 A3036 RMK A01 T00831017  RH  049%=      5-min Rain = 0
KAM1 142337Z 10004KT 08/M02 A3036 RMK A01 T00821018  RH  050%=      5-min Rain = 0
KAM1 142338Z 11004KT 08/M02 A3036 RMK A01 T00801018  RH  050%=      5-min Rain = 0
KAM1 142339Z 11004KT 08/M02 A3036 RMK A01 T00801018  RH  050%=      5-min Rain = 0
KAM1 142340Z 11004KT 08/M02 A3036 RMK A01 T00791017  RH  050%=      5-min Rain = 0
KAM1 142341Z 11004KT 08/M02 A3036 RMK A01 T00791018  RH  051%=      5-min Rain = 0
KAM1 142342Z 11004KT 08/M02 A3036 RMK A01 T00781019  RH  051%=      5-min Rain = 0
KAM1 142343Z 11004KT 08/M02 A3037 RMK A01 T00771019  RH  051%=      5-min Rain = 0
KAM1 142344Z 11004KT 08/M02 A3037 RMK A01 T00761020  RH  051%=      5-min Rain = 0
KAM1 142345Z 11004KT 08/M02 A3037 RMK A01 T00751021  RH  051%=      5-min Rain = 0
KAM1 142346Z 11004KT 07/M02 A3037 RMK A01 T00741021  RH  051%=      5-min Rain = 0
KAM1 142347Z 11004KT 07/M02 A3037 RMK A01 T00731022  RH  051%=      5-min Rain = 0
KAM1 142348Z 11004KT 07/M02 A3037 RMK A01 T00721022  RH  051%=      5-min Rain = 0
KAM1 142349Z 11004KT 07/M02 A3037 RMK A01 T00721022  RH  051%=      5-min Rain = 0
KAM1 142350Z 11004KT 07/M02 A3037 RMK A01 T00711022  RH  052%=      5-min Rain = 0
KAM1 142351Z 11003KT 07/M02 A3037 RMK A01 T00691023  RH  052%=      5-min Rain = 0
KAM1 142352Z 11003KT 07/M02 A3037 RMK A01 T00691023  RH  052%=      5-min Rain = 0
KAM1 142353Z 11003KT 07/M02 A3037 RMK A01 T00681022  RH  052%=      5-min Rain = 0
KAM1 142354Z 11003KT 07/M02 A3037 RMK A01 T00681022  RH  053%=      5-min Rain = 0
KAM1 142355Z 11003KT 07/M02 A3037 RMK A01 T00671022  RH  053%=      5-min Rain = 0
KAM1 142356Z 11003KT 07/M02 A3037 RMK A01 T00671022  RH  053%=      5-min Rain = 0
KAM1 142357Z 11004KT 07/M02 A3037 RMK A01 T00661022  RH  053%=      5-min Rain = 0
KAM1 142358Z 11004KT 07/M02 A3037 RMK A01 T00661021  RH  054%=      5-min Rain = 0
KAM1 142359Z 11004KT 07/M02 A3037 RMK A01 T00661021  RH  054%=      5-min Rain = 0
KAM1 150000Z 11004KT 07/M02 A3037 RMK A01 T00651021  RH  054%=      5-min Rain = 0
KAM1 150001Z 11004KT 07/M02 A3037 RMK A01 T00661021  RH  054%=      5-min Rain = 0
KAM1 150002Z 11004KT 07/M02 A3037 RMK A01 T00651021  RH  054%=      5-min Rain = 0
KAM1 150003Z 11003KT 07/M02 A3037 RMK A01 T00651021  RH  054%=      5-min Rain = 0
KAM1 150004Z 11003KT 07/M02 A3037 RMK A01 T00651020  RH  054%=      5-min Rain = 0
KAM1 150005Z 11004KT 06/M02 A3037 RMK A01 T00641020  RH  055%=      5-min Rain = 0
KAM1 150006Z 11003KT 06/M02 A3037 RMK A01 T00641021  RH  055%=      5-min Rain = 0
KAM1 150007Z 12003KT 06/M02 A3037 RMK A01 T00631021  RH  055%=      5-min Rain = 0
KAM1 150008Z 12004KT 06/M02 A3037 RMK A01 T00621021  RH  055%=      5-min Rain = 0
KAM1 150009Z 12003KT 06/M02 A3038 RMK A01 T00621021  RH  055%=      5-min Rain = 0
KAM1 150010Z 12003KT 06/M02 A3038 RMK A01 T00621021  RH  055%=      5-min Rain = 0
KAM1 150011Z 12003KT 06/M02 A3038 RMK A01 T00621020  RH  056%=      5-min Rain = 0
KAM1 150012Z 12003KT 06/M02 A3038 RMK A01 T00621020  RH  056%=      5-min Rain = 0
KAM1 150013Z 12003KT 06/M02 A3038 RMK A01 T00621020  RH  056%=      5-min Rain = 0
KAM1 150014Z 12003KT 06/M02 A3038 RMK A01 T00611022  RH  055%=      5-min Rain = 0
KAM1 150015Z 13003KT 06/M02 A3038 RMK A01 T00591023  RH  056%=      5-min Rain = 0
KAM1 150016Z 13003KT 06/M02 A3038 RMK A01 T00571023  RH  056%=      5-min Rain = 0
KAM1 150017Z 13003KT 06/M02 A3038 RMK A01 T00561022  RH  057%=      5-min Rain = 0
KAM1 150018Z 13003KT 06/M02 A3038 RMK A01 T00551021  RH  058%=      5-min Rain = 0
KAM1 150019Z 12003KT 06/M02 A3038 RMK A01 T00551019  RH  059%=      5-min Rain = 0
KAM1 150020Z 12003KT 06/M02 A3038 RMK A01 T00551019  RH  059%=      5-min Rain = 0
KAM1 150021Z 12003KT 06/M02 A3038 RMK A01 T00561019  RH  059%=      5-min Rain = 0
KAM1 150022Z 13003KT 06/M02 A3038 RMK A01 T00561019  RH  058%=      5-min Rain = 0
KAM1 150023Z 13003KT 06/M02 A3038 RMK A01 T00551022  RH  058%=      5-min Rain = 0
KAM1 150024Z 12004KT 05/M02 A3038 RMK A01 T00521024  RH  058%=      5-min Rain = 0
KAM1 150025Z 12004KT 05/M02 A3038 RMK A01 T00491022  RH  060%=      5-min Rain = 0
KAM1 150026Z 12003KT 05/M02 A3038 RMK A01 T00481021  RH  061%=      5-min Rain = 0
KAM1 150027Z 12003KT 05/M02 A3038 RMK A01 T00481019  RH  062%=      5-min Rain = 0
KAM1 150028Z 12003KT 05/M02 A3038 RMK A01 T00481018  RH  062%=      5-min Rain = 0
KAM1 150029Z 12003KT 05/M02 A3038 RMK A01 T00481017  RH  063%=      5-min Rain = 0
KAM1 150030Z 12004KT 05/M02 A3038 RMK A01 T00491015  RH  063%=      5-min Rain = 0
KAM1 150031Z 11004KT 05/M01 A3038 RMK A01 T00511013  RH  063%=      5-min Rain = 0
KAM1 150032Z 11004KT 05/M01 A3039 RMK A01 T00521014  RH  063%=      5-min Rain = 0
KAM1 150033Z 11003KT 05/M01 A3039 RMK A01 T00531014  RH  062%=      5-min Rain = 0
KAM1 150034Z 12003KT 05/M02 A3039 RMK A01 T00541015  RH  061%=      5-min Rain = 0
KAM1 150035Z 12003KT 06/M02 A3038 RMK A01 T00551015  RH  061%=      5-min Rain = 0
KAM1 150036Z 12003KT 06/M02 A3038 RMK A01 T00561016  RH  060%=      5-min Rain = 0
KAM1 150037Z 12003KT 06/M02 A3038 RMK A01 T00571016  RH  059%=      5-min Rain = 0
KAM1 150038Z 12003KT 06/M02 A3038 RMK A01 T00571016  RH  059%=      5-min Rain = 0
KAM1 150039Z 12003KT 06/M02 A3038 RMK A01 T00581017  RH  059%=      5-min Rain = 0
KAM1 150040Z 11003KT 06/M02 A3038 RMK A01 T00581017  RH  058%=      5-min Rain = 0
KAM1 150041Z 11003KT 06/M02 A3039 RMK A01 T00581015  RH  059%=      5-min Rain = 0
KAM1 150042Z 11004KT 06/M01 A3039 RMK A01 T00581014  RH  060%=      5-min Rain = 0
KAM1 150043Z 11004KT 06/M01 A3039 RMK A01 T00591014  RH  059%=      5-min Rain = 0
KAM1 150044Z 11004KT 06/M02 A3039 RMK A01 T00591016  RH  059%=      5-min Rain = 0
KAM1 150045Z 11004KT 06/M02 A3039 RMK A01 T00591017  RH  058%=      5-min Rain = 0
KAM1 150046Z 12004KT 06/M02 A3039 RMK A01 T00581018  RH  058%=      5-min Rain = 0
KAM1 150047Z 12004KT 06/M02 A3039 RMK A01 T00571020  RH  058%=      5-min Rain = 0
KAM1 150048Z 12004KT 06/M02 A3039 RMK A01 T00551020  RH  059%=      5-min Rain = 0
KAM1 150049Z 12003KT 05/M02 A3039 RMK A01 T00541019  RH  060%=      5-min Rain = 0
KAM1 150050Z 12004KT 05/M02 A3039 RMK A01 T00541018  RH  060%=      5-min Rain = 0
KAM1 150051Z 12003KT 05/M02 A3039 RMK A01 T00531018  RH  060%=      5-min Rain = 0
KAM1 150052Z 12004KT 05/M02 A3039 RMK A01 T00521018  RH  061%=      5-min Rain = 0
KAM1 150053Z 12004KT 05/M02 A3039 RMK A01 T00511018  RH  061%=      5-min Rain = 0
KAM1 150054Z 12004KT 05/M02 A3039 RMK A01 T00511019  RH  060%=      5-min Rain = 0
KAM1 150055Z 12004KT 05/M02 A3039 RMK A01 T00521019  RH  060%=      5-min Rain = 0
KAM1 150056Z 12004KT 05/M02 A3039 RMK A01 T00501021  RH  060%=      5-min Rain = 0
KAM1 150057Z 12004KT 05/M02 A3039 RMK A01 T00491021  RH  061%=      5-min Rain = 0
KAM1 150058Z 12004KT 05/M02 A3039 RMK A01 T00491022  RH  060%=      5-min Rain = 0
KAM1 150059Z 12004KT 05/M02 A3039 RMK A01 T00491024  RH  059%=      5-min Rain = 0
KAM1 150100Z 12004KT 05/M02 A3039 RMK A01 T00501023  RH  059%=      5-min Rain = 0
KAM1 150101Z 12004KT 05/M02 A3039 RMK A01 T00501020  RH  060%=      5-min Rain = 0
KAM1 150102Z 12004KT 05/M02 A3039 RMK A01 T00501020  RH  060%=      5-min Rain = 0
KAM1 150103Z 12004KT 05/M02 A3039 RMK A01 T00501021  RH  060%=      5-min Rain = 0
KAM1 150104Z 12004KT 05/M02 A3039 RMK A01 T00501020  RH  060%=      5-min Rain = 0
KAM1 150105Z 12004KT 05/M02 A3039 RMK A01 T00501019  RH  061%=      5-min Rain = 0
KAM1 150106Z 13004KT 05/M02 A3039 RMK A01 T00501018  RH  061%=      5-min Rain = 0
KAM1 150107Z 13004KT 05/M02 A3039 RMK A01 T00511016  RH  062%=      5-min Rain = 0
KAM1 150108Z 13005KT 05/M01 A3039 RMK A01 T00511014  RH  062%=      5-min Rain = 0
KAM1 150109Z 13005KT 05/M01 A3039 RMK A01 T00521014  RH  063%=      5-min Rain = 0
KAM1 150110Z 13005KT 05/M01 A3039 RMK A01 T00531014  RH  062%=      5-min Rain = 0
KAM1 150111Z 13005KT 05/M02 A304 RMK A01 T00521017  RH  061%=      5-min Rain = 0
KAM1 150112Z 13004KT 05/M02 A304 RMK A01 T00481021  RH  061%=      5-min Rain = 0
KAM1 150113Z 13004KT 04/M02 A304 RMK A01 T00441023  RH  062%=      5-min Rain = 0
KAM1 150114Z 13004KT 04/M02 A304 RMK A01 T00411023  RH  063%=      5-min Rain = 0
KAM1 150115Z 13004KT 04/M02 A304 RMK A01 T00401023  RH  064%=      5-min Rain = 0
KAM1 150116Z 13004KT 04/M02 A304 RMK A01 T00391023  RH  064%=      5-min Rain = 0
KAM1 150117Z 13004KT 04/M02 A304 RMK A01 T00381022  RH  065%=      5-min Rain = 0
KAM1 150118Z 13004KT 04/M02 A304 RMK A01 T00381021  RH  065%=      5-min Rain = 0
KAM1 150119Z 13003KT 04/M02 A304 RMK A01 T00381021  RH  066%=      5-min Rain = 0
KAM1 150120Z 13003KT 04/M02 A304 RMK A01 T00381021  RH  066%=      5-min Rain = 0
KAM1 150121Z 13003KT 04/M02 A304 RMK A01 T00381022  RH  065%=      5-min Rain = 0
KAM1 150122Z 13003KT 04/M02 A304 RMK A01 T00381023  RH  064%=      5-min Rain = 0
KAM1 150123Z 13003KT 04/M02 A304 RMK A01 T00381024  RH  064%=      5-min Rain = 0
KAM1 150124Z 13003KT 04/M02 A304 RMK A01 T00381024  RH  064%=      5-min Rain = 0
KAM1 150125Z 14003KT 04/M03 A304 RMK A01 T00371025  RH  064%=      5-min Rain = 0
KAM1 150126Z 14003KT 04/M03 A304 RMK A01 T00381025  RH  064%=      5-min Rain = 0
KAM1 150127Z 14004KT 04/M03 A304 RMK A01 T00381025  RH  063%=      5-min Rain = 0
KAM1 150128Z 14004KT 04/M03 A304 RMK A01 T00391026  RH  063%=      5-min Rain = 0
KAM1 150129Z 14004KT 04/M03 A304 RMK A01 T00391026  RH  062%=      5-min Rain = 0
KAM1 150130Z 14004KT 04/M03 A304 RMK A01 T00391027  RH  062%=      5-min Rain = 0
KAM1 150131Z 14004KT 04/M03 A304 RMK A01 T00391027  RH  062%=      5-min Rain = 0
KAM1 150132Z 14004KT 04/M03 A304 RMK A01 T00381028  RH  062%=      5-min Rain = 0
KAM1 150133Z 14005KT 04/M03 A304 RMK A01 T00371028  RH  063%=      5-min Rain = 0
KAM1 150134Z 14005KT 04/M03 A304 RMK A01 T00371028  RH  063%=      5-min Rain = 0
KAM1 150135Z 14005KT 04/M03 A304 RMK A01 T00361028  RH  063%=      5-min Rain = 0
KAM1 150136Z 14004KT 04/M03 A304 RMK A01 T00351029  RH  063%=      5-min Rain = 0
KAM1 150137Z 13005KT 03/M03 A304 RMK A01 T00341029  RH  064%=      5-min Rain = 0
KAM1 150138Z 14005KT 03/M03 A304 RMK A01 T00331028  RH  064%=      5-min Rain = 0
KAM1 150139Z 14004KT 03/M03 A304 RMK A01 T00341027  RH  064%=      5-min Rain = 0
KAM1 150140Z 13004KT 03/M03 A304 RMK A01 T00341027  RH  065%=      5-min Rain = 0
KAM1 150141Z 13004KT 03/M03 A304 RMK A01 T00341026  RH  065%=      5-min Rain = 0
KAM1 150142Z 13004KT 03/M03 A304 RMK A01 T00341026  RH  065%=      5-min Rain = 0
KAM1 150143Z 13004KT 03/M03 A304 RMK A01 T00331025  RH  066%=      5-min Rain = 0
KAM1 150144Z 13004KT 03/M02 A304 RMK A01 T00331024  RH  066%=      5-min Rain = 0
KAM1 150145Z 14004KT 03/M03 A304 RMK A01 T00321025  RH  066%=      5-min Rain = 0
KAM1 150146Z 14004KT 03/M03 A304 RMK A01 T00321027  RH  065%=      5-min Rain = 0
KAM1 150147Z 14003KT 03/M03 A304 RMK A01 T00321027  RH  065%=      5-min Rain = 0
KAM1 150148Z 14003KT 03/M03 A304 RMK A01 T00311029  RH  065%=      5-min Rain = 0
KAM1 150149Z 14004KT 03/M03 A304 RMK A01 T00291029  RH  065%=      5-min Rain = 0
KAM1 150150Z 15004KT 03/M03 A304 RMK A01 T00291028  RH  066%=      5-min Rain = 0
KAM1 150151Z 15004KT 03/M03 A304 RMK A01 T00301028  RH  066%=      5-min Rain = 0
KAM1 150152Z 15004KT 03/M03 A304 RMK A01 T00301027  RH  066%=      5-min Rain = 0
KAM1 150153Z 15004KT 03/M03 A304 RMK A01 T00291026  RH  067%=      5-min Rain = 0
KAM1 150154Z 15004KT 03/M03 A304 RMK A01 T00291027  RH  067%=      5-min Rain = 0
KAM1 150155Z 14004KT 03/M03 A304 RMK A01 T00291028  RH  066%=      5-min Rain = 0
KAM1 150156Z 14004KT 03/M03 A304 RMK A01 T00291027  RH  067%=      5-min Rain = 0
KAM1 150157Z 15004KT 03/M03 A304 RMK A01 T00301027  RH  066%=      5-min Rain = 0
KAM1 150158Z 15004KT 03/M03 A304 RMK A01 T00311027  RH  066%=      5-min Rain = 0
KAM1 150159Z 15004KT 03/M03 A304 RMK A01 T00331026  RH  065%=      5-min Rain = 0
KAM1 150200Z 15004KT 04/M02 A304 RMK A01 T00361024  RH  065%=      5-min Rain = 0
KAM1 150201Z 15004KT 04/M03 A304 RMK A01 T00371025  RH  064%=      5-min Rain = 0
KAM1 150202Z 15004KT 04/M03 A304 RMK A01 T00381026  RH  063%=      5-min Rain = 0
KAM1 150203Z 15003KT 04/M03 A304 RMK A01 T00391027  RH  062%=      5-min Rain = 0
KAM1 150204Z 14003KT 04/M03 A304 RMK A01 T00391027  RH  062%=      5-min Rain = 0
KAM1 150205Z 14003KT 04/M03 A304 RMK A01 T00391026  RH  063%=      5-min Rain = 0
KAM1 150206Z 14004KT 04/M03 A304 RMK A01 T00391026  RH  063%=      5-min Rain = 0
KAM1 150207Z 15004KT 04/M03 A304 RMK A01 T00381027  RH  062%=      5-min Rain = 0
KAM1 150208Z 16004KT 04/M03 A304 RMK A01 T00371027  RH  063%=      5-min Rain = 0
KAM1 150209Z 16004KT 04/M03 A304 RMK A01 T00361028  RH  063%=      5-min Rain = 0
KAM1 150210Z 16004KT 04/M03 A304 RMK A01 T00351028  RH  063%=      5-min Rain = 0
KAM1 150211Z 18005KT 04/M03 A3041 RMK A01 T00351028  RH  063%=      5-min Rain = 0
KAM1 150212Z 18005KT 03/M03 A3041 RMK A01 T00341029  RH  063%=      5-min Rain = 0
KAM1 150213Z 18005KT 03/M03 A3041 RMK A01 T00331030  RH  063%=      5-min Rain = 0
KAM1 150214Z 18005KT 03/M03 A3041 RMK A01 T00321031  RH  063%=      5-min Rain = 0
KAM1 150215Z 18005KT 03/M03 A304 RMK A01 T00311031  RH  063%=      5-min Rain = 0
KAM1 150216Z 18005KT 03/M03 A304 RMK A01 T00301032  RH  063%=      5-min Rain = 0
KAM1 150217Z 17005KT 03/M03 A304 RMK A01 T00291033  RH  064%=      5-min Rain = 0
KAM1 150218Z 17005KT 03/M03 A304 RMK A01 T00281033  RH  064%=      5-min Rain = 0
KAM1 150219Z 17005KT 03/M03 A304 RMK A01 T00271033  RH  065%=      5-min Rain = 0
KAM1 150220Z 17005KT 03/M03 A304 RMK A01 T00261034  RH  065%=      5-min Rain = 0
KAM1 150221Z 17006KT 03/M03 A304 RMK A01 T00251034  RH  065%=      5-min Rain = 0
KAM1 150222Z 18006KT 02/M03 A304 RMK A01 T00241033  RH  066%=      5-min Rain = 0
KAM1 150223Z 18006KT 02/M03 A304 RMK A01 T00241033  RH  066%=      5-min Rain = 0
KAM1 150224Z 18005KT 02/M03 A304 RMK A01 T00231034  RH  066%=      5-min Rain = 0
KAM1 150225Z 18006KT 02/M03 A304 RMK A01 T00211034  RH  067%=      5-min Rain = 0
KAM1 150226Z 18006KT 02/M04 A304 RMK A01 T00201035  RH  067%=      5-min Rain = 0
KAM1 150227Z 18006KT 02/M04 A304 RMK A01 T00181035  RH  068%=      5-min Rain = 0
KAM1 150228Z 18006KT 02/M04 A304 RMK A01 T00171035  RH  068%=      5-min Rain = 0
KAM1 150229Z 18006KT 02/M04 A304 RMK A01 T00151037  RH  068%=      5-min Rain = 0
KAM1 150230Z 18005KT 01/M04 A304 RMK A01 T00121040  RH  068%=      5-min Rain = 0
KAM1 150231Z 17005KT 01/M04 A304 RMK A01 T00101038  RH  070%=      5-min Rain = 0
KAM1 150232Z 15003KT 01/M04 A304 RMK A01 T00111035  RH  071%=      5-min Rain = 0
KAM1 150233Z 13003KT 01/M03 A304 RMK A01 T00141033  RH  071%=      5-min Rain = 0
KAM1 150234Z 14003KT 02/M03 A304 RMK A01 T00161033  RH  070%=      5-min Rain = 0
KAM1 150235Z 15004KT 02/M03 A304 RMK A01 T00171032  RH  070%=      5-min Rain = 0
KAM1 150236Z 16004KT 02/M03 A304 RMK A01 T00181030  RH  070%=      5-min Rain = 0
KAM1 150237Z 16004KT 02/M03 A304 RMK A01 T00201028  RH  071%=      5-min Rain = 0
KAM1 150238Z 16004KT 02/M03 A304 RMK A01 T00211028  RH  070%=      5-min Rain = 0
KAM1 150239Z 16004KT 02/M03 A304 RMK A01 T00211028  RH  070%=      5-min Rain = 0
KAM1 150240Z 16004KT 02/M03 A304 RMK A01 T00211028  RH  070%=      5-min Rain = 0
KAM1 150241Z 16004KT 02/M03 A304 RMK A01 T00201028  RH  070%=      5-min Rain = 0
KAM1 150242Z 16004KT 02/M03 A304 RMK A01 T00211025  RH  072%=      5-min Rain = 0
KAM1 150243Z 16005KT 02/M02 A304 RMK A01 T00221023  RH  072%=      5-min Rain = 0
KAM1 150244Z 16005KT 02/M02 A304 RMK A01 T00231024  RH  071%=      5-min Rain = 0
KAM1 150245Z 16005KT 02/M02 A304 RMK A01 T00241024  RH  071%=      5-min Rain = 0
KAM1 150246Z 16005KT 02/M03 A304 RMK A01 T00241025  RH  070%=      5-min Rain = 0
KAM1 150247Z 15005KT 02/M03 A304 RMK A01 T00231026  RH  070%=      5-min Rain = 0
KAM1 150248Z 15005KT 02/M03 A304 RMK A01 T00221026  RH  071%=      5-min Rain = 0
KAM1 150249Z 15004KT 02/M03 A304 RMK A01 T00221026  RH  071%=      5-min Rain = 0
KAM1 150250Z 16005KT 02/M03 A304 RMK A01 T00221026  RH  071%=      5-min Rain = 0
KAM1 150251Z 16005KT 02/M03 A304 RMK A01 T00231025  RH  071%=      5-min Rain = 0
KAM1 150252Z 17005KT 02/M03 A304 RMK A01 T00231026  RH  070%=      5-min Rain = 0
KAM1 150253Z 17005KT 02/M03 A304 RMK A01 T00231027  RH  070%=      5-min Rain = 0
KAM1 150254Z 17005KT 02/M03 A304 RMK A01 T00221027  RH  070%=      5-min Rain = 0
KAM1 150255Z 17005KT 02/M03 A304 RMK A01 T00211029  RH  070%=      5-min Rain = 0
KAM1 150256Z 18005KT 02/M03 A304 RMK A01 T00191031  RH  070%=      5-min Rain = 0
KAM1 150257Z 17005KT 02/M03 A304 RMK A01 T00171033  RH  070%=      5-min Rain = 0
KAM1 150258Z 18005KT 02/M03 A304 RMK A01 T00151034  RH  070%=      5-min Rain = 0
KAM1 150259Z 17005KT 01/M04 A304 RMK A01 T00141035  RH  070%=      5-min Rain = 0
KAM1 150300Z 18005KT 01/M04 A304 RMK A01 T00121037  RH  070%=      5-min Rain = 0
KAM1 150301Z 18005KT 01/M04 A304 RMK A01 T00111038  RH  070%=      5-min Rain = 0
KAM1 150302Z 17005KT 01/M04 A304 RMK A01 T00091039  RH  070%=      5-min Rain = 0
KAM1 150303Z 17006KT 01/M04 A304 RMK A01 T00081039  RH  071%=      5-min Rain = 0
KAM1 150304Z 17006KT 01/M04 A304 RMK A01 T00071039  RH  071%=      5-min Rain = 0
KAM1 150305Z 17006KT 01/M04 A304 RMK A01 T00061039  RH  072%=      5-min Rain = 0
KAM1 150306Z 17006KT 01/M04 A304 RMK A01 T00061039  RH  072%=      5-min Rain = 0
KAM1 150307Z 17006KT 01/M04 A304 RMK A01 T00051039  RH  072%=      5-min Rain = 0
KAM1 150308Z 18006KT 01/M04 A304 RMK A01 T00051039  RH  072%=      5-min Rain = 0
KAM1 150309Z 18006KT 00/M04 A304 RMK A01 T00031040  RH  073%=      5-min Rain = 0
KAM1 150310Z 17006KT 00/M04 A304 RMK A01 T00031039  RH  074%=      5-min Rain = 0
KAM1 150311Z 17006KT 00/M04 A304 RMK A01 T00031037  RH  074%=      5-min Rain = 0
KAM1 150312Z 17006KT 00/M04 A304 RMK A01 T00041036  RH  075%=      5-min Rain = 0
KAM1 150313Z 17006KT 01/M04 A304 RMK A01 T00051035  RH  075%=      5-min Rain = 0
KAM1 150314Z 17006KT 01/M03 A304 RMK A01 T00071034  RH  074%=      5-min Rain = 0
KAM1 150315Z 16006KT 01/M03 A304 RMK A01 T00081034  RH  074%=      5-min Rain = 0
KAM1 150316Z 16006KT 01/M03 A304 RMK A01 T00091034  RH  073%=      5-min Rain = 0
KAM1 150317Z 16006KT 01/M04 A304 RMK A01 T00081036  RH  072%=      5-min Rain = 0
KAM1 150318Z 17006KT 01/M04 A304 RMK A01 T00071037  RH  072%=      5-min Rain = 0
KAM1 150319Z 17006KT 01/M04 A304 RMK A01 T00051039  RH  072%=      5-min Rain = 0
KAM1 150320Z 17006KT 00/M04 A304 RMK A01 T00041039  RH  073%=      5-min Rain = 0
KAM1 150321Z 17006KT 00/M04 A304 RMK A01 T00031037  RH  074%=      5-min Rain = 0
KAM1 150322Z 17006KT 00/M04 A304 RMK A01 T00031036  RH  075%=      5-min Rain = 0
KAM1 150323Z 17006KT 00/M04 A304 RMK A01 T00041036  RH  075%=      5-min Rain = 0
KAM1 150324Z 17006KT 01/M04 A304 RMK A01 T00051035  RH  075%=      5-min Rain = 0
KAM1 150325Z 17006KT 01/M03 A304 RMK A01 T00051034  RH  075%=      5-min Rain = 0
KAM1 150326Z 17006KT 01/M03 A304 RMK A01 T00061034  RH  075%=      5-min Rain = 0
KAM1 150327Z 17006KT 01/M03 A304 RMK A01 T00071033  RH  074%=      5-min Rain = 0
KAM1 150328Z 17006KT 01/M03 A3041 RMK A01 T00081033  RH  074%=      5-min Rain = 0
KAM1 150329Z 17006KT 01/M03 A3041 RMK A01 T00081033  RH  074%=      5-min Rain = 0
KAM1 150330Z 17006KT 01/M03 A3041 RMK A01 T00091033  RH  074%=      5-min Rain = 0
KAM1 150331Z 17006KT 01/M03 A3041 RMK A01 T00101032  RH  073%=      5-min Rain = 0
KAM1 150332Z 17006KT 01/M03 A3041 RMK A01 T00101033  RH  073%=      5-min Rain = 0
KAM1 150333Z 17006KT 01/M03 A3041 RMK A01 T00101033  RH  073%=      5-min Rain = 0
KAM1 150334Z 17006KT 01/M03 A3041 RMK A01 T00101034  RH  072%=      5-min Rain = 0
KAM1 150335Z 17006KT 01/M04 A3041 RMK A01 T00091035  RH  073%=      5-min Rain = 0
KAM1 150336Z 17006KT 01/M04 A3041 RMK A01 T00081035  RH  073%=      5-min Rain = 0
KAM1 150337Z 17006KT 01/M04 A3041 RMK A01 T00071036  RH  073%=      5-min Rain = 0
KAM1 150338Z 17006KT 01/M04 A3041 RMK A01 T00061036  RH  073%=      5-min Rain = 0
KAM1 150339Z 17006KT 01/M04 A3041 RMK A01 T00061036  RH  074%=      5-min Rain = 0
KAM1 150340Z 17006KT 01/M04 A3041 RMK A01 T00061036  RH  074%=      5-min Rain = 0
KAM1 150341Z 17006KT 01/M04 A3041 RMK A01 T00061036  RH  073%=      5-min Rain = 0
KAM1 150342Z 17006KT 01/M04 A3041 RMK A01 T00061036  RH  073%=      5-min Rain = 0
KAM1 150343Z 18006KT 01/M04 A3041 RMK A01 T00061035  RH  074%=      5-min Rain = 0
KAM1 150344Z 18006KT 01/M04 A3041 RMK A01 T00071035  RH  073%=      5-min Rain = 0
KAM1 150345Z 18006KT 01/M04 A3041 RMK A01 T00071036  RH  073%=      5-min Rain = 0
KAM1 150346Z 17006KT 01/M04 A3041 RMK A01 T00071036  RH  073%=      5-min Rain = 0
KAM1 150347Z 18006KT 01/M04 A3041 RMK A01 T00071037  RH  072%=      5-min Rain = 0
KAM1 150348Z 18006KT 01/M04 A3041 RMK A01 T00071037  RH  072%=      5-min Rain = 0
KAM1 150349Z 18005KT 01/M04 A3041 RMK A01 T00071037  RH  072%=      5-min Rain = 0
KAM1 150350Z 18005KT 01/M04 A3041 RMK A01 T00071038  RH  072%=      5-min Rain = 0
KAM1 150351Z 18005KT 01/M04 A3041 RMK A01 T00081038  RH  072%=      5-min Rain = 0
KAM1 150352Z 18005KT 01/M04 A3041 RMK A01 T00081038  RH  071%=      5-min Rain = 0
KAM1 150353Z 18005KT 01/M04 A3041 RMK A01 T00081038  RH  071%=      5-min Rain = 0
KAM1 150354Z 19005KT 01/M04 A3041 RMK A01 T00081038  RH  071%=      5-min Rain = 0
KAM1 150355Z 19005KT 01/M04 A3041 RMK A01 T00081037  RH  072%=      5-min Rain = 0
KAM1 150356Z 19005KT 01/M04 A3041 RMK A01 T00081037  RH  072%=      5-min Rain = 0
KAM1 150357Z 19005KT 01/M04 A3041 RMK A01 T00071038  RH  072%=      5-min Rain = 0
KAM1 150358Z 20005KT 01/M04 A3041 RMK A01 T00071038  RH  072%=      5-min Rain = 0
KAM1 150359Z 20005KT 01/M04 A3041 RMK A01 T00061039  RH  072%=      5-min Rain = 0
KAM1 150400Z 20005KT 01/M04 A3041 RMK A01 T00051039  RH  072%=      5-min Rain = 0
KAM1 150401Z 20005KT 01/M04 A3041 RMK A01 T00051039  RH  072%=      5-min Rain = 0
KAM1 150402Z 20005KT 00/M04 A3041 RMK A01 T00041038  RH  073%=      5-min Rain = 0
KAM1 150403Z 20005KT 00/M04 A3041 RMK A01 T00041039  RH  073%=      5-min Rain = 0
KAM1 150404Z 19005KT 00/M04 A3041 RMK A01 T00021040  RH  073%=      5-min Rain = 0
KAM1 150405Z 19005KT 00/04 A3041 RMK A01 T00-00-40  RH  075%=      5-min Rain = 0
KAM1 150406Z 19006KT M00/M04 A3041 RMK A01 T10011038  RH  076%=      5-min Rain = 0
KAM1 150407Z 19006KT M00/M04 A3041 RMK A01 T10021037  RH  077%=      5-min Rain = 0
KAM1 150408Z 19006KT M00/M04 A3041 RMK A01 T10021037  RH  077%=      5-min Rain = 0
KAM1 150409Z 19006KT M00/M04 A3041 RMK A01 T10031038  RH  077%=      5-min Rain = 0
KAM1 150410Z 19006KT M00/M04 A3041 RMK A01 T10041038  RH  078%=      5-min Rain = 0
KAM1 150411Z 19006KT M01/M04 A3041 RMK A01 T10051038  RH  078%=      5-min Rain = 0
KAM1 150412Z 19006KT M01/M04 A3041 RMK A01 T10051037  RH  079%=      5-min Rain = 0
KAM1 150413Z 19006KT M01/M04 A3041 RMK A01 T10051037  RH  079%=      5-min Rain = 0
KAM1 150414Z 19006KT M01/M04 A3041 RMK A01 T10051037  RH  079%=      5-min Rain = 0
KAM1 150415Z 19007KT M01/M04 A3041 RMK A01 T10051037  RH  079%=      5-min Rain = 0
KAM1 150416Z 19007KT M00/M04 A3041 RMK A01 T10041037  RH  079%=      5-min Rain = 0
KAM1 150417Z 19007KT M00/M04 A3041 RMK A01 T10031037  RH  078%=      5-min Rain = 0
KAM1 150418Z 19007KT M00/M04 A3041 RMK A01 T10021036  RH  078%=      5-min Rain = 0
KAM1 150419Z 19007KT M00/M03 A3042 RMK A01 T10011034  RH  078%=      5-min Rain = 0
KAM1 150420Z 19007KT 00/M03 A3042 RMK A01 T00011033  RH  078%=      5-min Rain = 0
KAM1 150421Z 19007KT 00/M03 A3042 RMK A01 T00011033  RH  078%=      5-min Rain = 0
KAM1 150422Z 20006KT 00/M03 A3042 RMK A01 T00021034  RH  077%=      5-min Rain = 0
KAM1 150423Z 20006KT 00/M03 A3042 RMK A01 T00021033  RH  077%=      5-min Rain = 0
KAM1 150424Z 20006KT 00/M03 A3042 RMK A01 T00021033  RH  078%=      5-min Rain = 0
KAM1 150425Z 20006KT 00/M03 A3042 RMK A01 T00021032  RH  078%=      5-min Rain = 0
KAM1 150426Z 20006KT 00/M03 A3042 RMK A01 T00011032  RH  078%=      5-min Rain = 0
KAM1 150427Z 20006KT 00/M03 A3042 RMK A01 T00011032  RH  078%=      5-min Rain = 0
KAM1 150428Z 20006KT 00/M03 A3042 RMK A01 T00011032  RH  078%=      5-min Rain = 0
KAM1 150429Z 20006KT 00/03 A3042 RMK A01 T00000-33  RH  078%=      5-min Rain = 0
KAM1 150430Z 20006KT 00/03 A3042 RMK A01 T00-00-33  RH  079%=      5-min Rain = 0
KAM1 150431Z 21005KT 00/03 A3042 RMK A01 T00-00-34  RH  078%=      5-min Rain = 0
KAM1 150432Z 21005KT M00/M04 A3042 RMK A01 T10031036  RH  078%=      5-min Rain = 0
KAM1 150433Z 21005KT M00/M03 A3042 RMK A01 T10031034  RH  079%=      5-min Rain = 0
KAM1 150434Z 22005KT M00/M04 A3042 RMK A01 T10041036  RH  079%=      5-min Rain = 0
KAM1 150435Z 22005KT M01/M04 A3042 RMK A01 T10051038  RH  079%=      5-min Rain = 0
KAM1 150436Z 22005KT M01/M04 A3042 RMK A01 T10071040  RH  079%=      5-min Rain = 0
KAM1 150437Z 21005KT M01/M04 A3042 RMK A01 T10091042  RH  079%=      5-min Rain = 0
KAM1 150438Z 21005KT M01/M04 A3042 RMK A01 T10121044  RH  078%=      5-min Rain = 0
KAM1 150439Z 21005KT M01/M05 A3042 RMK A01 T10141045  RH  079%=      5-min Rain = 0
KAM1 150440Z 21005KT M01/M04 A3042 RMK A01 T10141043  RH  081%=      5-min Rain = 0
KAM1 150441Z 21005KT M01/M04 A3042 RMK A01 T10141042  RH  082%=      5-min Rain = 0
KAM1 150442Z 21005KT M01/M04 A3042 RMK A01 T10141041  RH  082%=      5-min Rain = 0
KAM1 150443Z 21004KT M02/M04 A3042 RMK A01 T10151041  RH  083%=      5-min Rain = 0
KAM1 150444Z 21005KT M02/M04 A3042 RMK A01 T10151040  RH  083%=      5-min Rain = 0
KAM1 150445Z 21005KT M02/M04 A3042 RMK A01 T10151041  RH  083%=      5-min Rain = 0
KAM1 150446Z 21005KT M02/M04 A3042 RMK A01 T10151040  RH  083%=      5-min Rain = 0
KAM1 150447Z 22004KT M02/M04 A3042 RMK A01 T10151041  RH  083%=      5-min Rain = 0
KAM1 150448Z 22004KT M02/M04 A3042 RMK A01 T10161041  RH  083%=      5-min Rain = 0
KAM1 150449Z 21003KT M02/M04 A3042 RMK A01 T10171042  RH  083%=      5-min Rain = 0
KAM1 150450Z 21003KT M02/M04 A3042 RMK A01 T10181043  RH  083%=      5-min Rain = 0
KAM1 150451Z 21003KT M02/M04 A3042 RMK A01 T10191042  RH  084%=      5-min Rain = 0
KAM1 150452Z 21002KT M02/M04 A3042 RMK A01 T10171037  RH  086%=      5-min Rain = 0
KAM1 150453Z 20002KT M02/M04 A3042 RMK A01 T10151037  RH  085%=      5-min Rain = 0
KAM1 150454Z 19002KT M01/M04 A3042 RMK A01 T10141039  RH  083%=      5-min Rain = 0
KAM1 150455Z 20002KT M01/M04 A3042 RMK A01 T10141040  RH  082%=      5-min Rain = 0
KAM1 150456Z 19002KT M01/M04 A3042 RMK A01 T10141040  RH  082%=      5-min Rain = 0
KAM1 150457Z 19003KT M01/M04 A3042 RMK A01 T10131039  RH  082%=      5-min Rain = 0
KAM1 150458Z 18003KT M01/M04 A3042 RMK A01 T10121039  RH  082%=      5-min Rain = 0
KAM1 150459Z 18003KT M01/M04 A3042 RMK A01 T10101037  RH  082%=      5-min Rain = 0
KAM1 150500Z 19003KT M01/M03 A3042 RMK A01 T10071033  RH  083%=      5-min Rain = 0
KAM1 150501Z 19004KT M00/M03 A3042 RMK A01 T10031031  RH  081%=      5-min Rain = 0
KAM1 150502Z 19004KT 00/03 A3042 RMK A01 T00-00-31  RH  080%=      5-min Rain = 0
KAM1 150503Z 19004KT 00/M03 A3042 RMK A01 T00011032  RH  078%=      5-min Rain = 0
KAM1 150504Z 19004KT 00/M03 A3042 RMK A01 T00011033  RH  078%=      5-min Rain = 0
KAM1 150505Z 19004KT 00/M03 A3042 RMK A01 T00021033  RH  077%=      5-min Rain = 0
KAM1 150506Z 19004KT 00/M03 A3042 RMK A01 T00031033  RH  077%=      5-min Rain = 0
KAM1 150507Z 19005KT 00/M03 A3042 RMK A01 T00031033  RH  077%=      5-min Rain = 0
KAM1 150508Z 20005KT 00/M03 A3042 RMK A01 T00031033  RH  077%=      5-min Rain = 0
KAM1 150509Z 20005KT 00/M03 A3042 RMK A01 T00031033  RH  077%=      5-min Rain = 0
KAM1 150510Z 20005KT 00/M03 A3042 RMK A01 T00031033  RH  077%=      5-min Rain = 0
KAM1 150511Z 20005KT 00/M03 A3042 RMK A01 T00031033  RH  077%=      5-min Rain = 0
KAM1 150512Z 20005KT 00/M03 A3042 RMK A01 T00031033  RH  077%=      5-min Rain = 0
KAM1 150513Z 21005KT 00/M03 A3042 RMK A01 T00031033  RH  077%=      5-min Rain = 0
KAM1 150514Z 20005KT 00/M03 A3042 RMK A01 T00031033  RH  077%=      5-min Rain = 0
KAM1 150515Z 21005KT 00/M03 A3041 RMK A01 T00031033  RH  076%=      5-min Rain = 0
KAM1 150516Z 20005KT 00/M03 A3041 RMK A01 T00031034  RH  076%=      5-min Rain = 0
KAM1 150517Z 20005KT 00/M03 A3041 RMK A01 T00031034  RH  076%=      5-min Rain = 0
KAM1 150518Z 20006KT 00/M04 A3041 RMK A01 T00031035  RH  076%=      5-min Rain = 0
KAM1 150519Z 20006KT 00/M04 A3041 RMK A01 T00021035  RH  076%=      5-min Rain = 0
KAM1 150520Z 19006KT 00/M04 A3042 RMK A01 T00011036  RH  076%=      5-min Rain = 0
KAM1 150521Z 19006KT 00/04 A3042 RMK A01 T00000-38  RH  076%=      5-min Rain = 0
KAM1 150522Z 19006KT M00/M04 A3042 RMK A01 T10011039  RH  076%=      5-min Rain = 0
KAM1 150523Z 19006KT M00/M04 A3042 RMK A01 T10031039  RH  076%=      5-min Rain = 0
KAM1 150524Z 19006KT M00/M04 A3042 RMK A01 T10031039  RH  077%=      5-min Rain = 0
KAM1 150525Z 19006KT M00/M04 A3042 RMK A01 T10041039  RH  077%=      5-min Rain = 0
KAM1 150526Z 19006KT M01/M04 A3042 RMK A01 T10051040  RH  077%=      5-min Rain = 0
KAM1 150527Z 19006KT M01/M04 A3041 RMK A01 T10061040  RH  078%=      5-min Rain = 0
KAM1 150528Z 20006KT M01/M04 A3041 RMK A01 T10061040  RH  078%=      5-min Rain = 0
KAM1 150529Z 20006KT M01/M04 A3041 RMK A01 T10071040  RH  078%=      5-min Rain = 0
KAM1 150530Z 20006KT M01/M04 A3041 RMK A01 T10081040  RH  078%=      5-min Rain = 0
KAM1 150531Z 20006KT M01/M04 A3041 RMK A01 T10081040  RH  079%=      5-min Rain = 0
KAM1 150532Z 20006KT M01/M04 A3041 RMK A01 T10081040  RH  079%=      5-min Rain = 0
KAM1 150533Z 20006KT M01/M04 A3041 RMK A01 T10081040  RH  079%=      5-min Rain = 0
KAM1 150534Z 20006KT M01/M04 A3041 RMK A01 T10081040  RH  079%=      5-min Rain = 0
KAM1 150535Z 19006KT M01/M04 A3041 RMK A01 T10091040  RH  079%=      5-min Rain = 0
KAM1 150536Z 20006KT M01/M04 A3041 RMK A01 T10091040  RH  079%=      5-min Rain = 0
KAM1 150537Z 20006KT M01/M04 A3041 RMK A01 T10091040  RH  079%=      5-min Rain = 0
KAM1 150538Z 20006KT M01/M04 A3041 RMK A01 T10091040  RH  079%=      5-min Rain = 0
KAM1 150539Z 20006KT M01/M04 A3041 RMK A01 T10091040  RH  080%=      5-min Rain = 0
KAM1 150540Z 20006KT M01/M04 A3041 RMK A01 T10091039  RH  080%=      5-min Rain = 0
KAM1 150541Z 20007KT M01/M04 A3041 RMK A01 T10091039  RH  080%=      5-min Rain = 0
KAM1 150542Z 20007KT M01/M04 A3041 RMK A01 T10081038  RH  080%=      5-min Rain = 0
KAM1 150543Z 20007KT M01/M04 A3041 RMK A01 T10071037  RH  081%=      5-min Rain = 0
KAM1 150544Z 21007KT M01/M04 A3041 RMK A01 T10061035  RH  081%=      5-min Rain = 0
KAM1 150545Z 21007KT M01/M03 A3041 RMK A01 T10051033  RH  082%=      5-min Rain = 0
KAM1 150546Z 21007KT M00/M03 A3041 RMK A01 T10041031  RH  082%=      5-min Rain = 0
KAM1 150547Z 21007KT M00/M03 A3041 RMK A01 T10031031  RH  082%=      5-min Rain = 0
KAM1 150548Z 21007KT M00/M03 A3041 RMK A01 T10021030  RH  081%=      5-min Rain = 0
KAM1 150549Z 21007KT M00/M03 A3041 RMK A01 T10011030  RH  081%=      5-min Rain = 0
KAM1 150550Z 22007KT M00/M03 A3041 RMK A01 T10011031  RH  081%=      5-min Rain = 0
KAM1 150551Z 22007KT M00/M03 A3041 RMK A01 T10011031  RH  081%=      5-min Rain = 0
KAM1 150552Z 21007KT M00/M03 A3041 RMK A01 T10011030  RH  081%=      5-min Rain = 0
KAM1 150553Z 21007KT M00/M03 A3041 RMK A01 T10021030  RH  081%=      5-min Rain = 0
KAM1 150554Z 21007KT M00/M03 A3041 RMK A01 T10011029  RH  081%=      5-min Rain = 0
KAM1 150555Z 21007KT 00/03 A3041 RMK A01 T00000-28  RH  081%=      5-min Rain = 0
KAM1 150556Z 21007KT 00/M03 A3041 RMK A01 T00011027  RH  081%=      5-min Rain = 0
KAM1 150557Z 21006KT 00/M03 A3041 RMK A01 T00021028  RH  081%=      5-min Rain = 0
KAM1 150558Z 21006KT 00/M03 A3041 RMK A01 T00021028  RH  080%=      5-min Rain = 0
KAM1 150559Z 20006KT 00/M03 A3041 RMK A01 T00021028  RH  080%=      5-min Rain = 0

Page generated in 0.1314 seconds.